ECMWFNIL_850_spd_000.txt.gz
Wind_Speed
22 18 15 15 14 13 14 14 14 13 13 10 8 7 7 5 3 4 4 4 4 4 4 4 5 5 6 8 7 4 5 5 5 5 4 3 3 2 2 2 2 1
22 19 16 17 16 14 14 14 14 13 14 12 10 10 9 6 4 5 4 3 4 5 4 4 4 4 5 6 6 4 4 4 4 4 3 3 3 3 3 3 3 3
21 19 18 18 18 16 15 15 14 13 13 13 12 12 11 8 6 6 5 3 3 4 5 4 4 4 4 4 4 4 4 3 3 4 4 3 3 4 4 4 5 5
20 19 17 17 18 16 15 16 16 14 13 13 13 13 13 11 8 6 5 5 4 3 3 4 4 4 4 3 4 4 3 3 2 3 3 3 3 3 4 4 5 5
18 18 17 16 16 15 14 15 16 14 13 13 13 13 13 13 10 7 6 5 5 5 3 3 4 5 5 4 6 5 4 4 2 2 2 1 1 1 2 3 3 3
17 18 19 18 16 15 14 15 15 14 12 12 14 13 14 14 11 9 8 7 7 7 6 6 6 6 6 6 7 7 5 6 4 3 4 3 1 1 1 0 1 2
17 17 18 19 18 17 16 16 16 13 11 12 13 13 14 15 12 10 11 8 8 9 9 9 8 8 9 8 9 8 7 8 7 5 6 6 4 3 3 2 1 1
15 17 17 17 18 19 17 17 17 14 12 14 14 13 14 15 13 11 12 11 10 11 11 11 11 11 11 10 11 10 9 10 9 6 6 9 8 5 5 5 2 2
13 14 15 15 16 18 18 17 17 16 16 16 15 15 15 15 15 13 13 14 13 13 13 14 14 13 13 13 12 12 12 12 12 9 6 10 10 6 5 8 7 3
14 13 15 16 16 18 19 20 19 18 18 15 14 15 15 16 18 15 14 16 16 14 14 15 16 16 17 17 15 14 15 15 14 12 10 11 10 7 6 10 10 6
15 14 16 18 18 18 20 22 21 21 19 16 14 17 17 16 17 14 14 18 19 18 18 18 19 19 19 20 18 16 16 17 15 14 12 12 12 9 9 12 12 10
15 13 13 17 20 21 21 22 22 22 22 21 19 18 19 19 19 17 18 21 20 20 22 22 21 21 21 21 20 18 19 19 17 15 15 14 13 12 13 14 13 11
14 12 9 9 13 16 18 19 19 19 21 23 23 21 23 26 27 25 25 26 24 23 26 26 23 23 23 23 22 21 21 21 19 18 17 16 16 16 15 15 13 12
12 11 9 7 6 7 8 8 8 9 12 15 17 20 23 27 30 27 25 25 26 27 28 27 25 25 25 25 25 24 23 22 22 21 19 19 19 18 16 15 15 13
7 6 6 4 3 2 4 6 7 8 10 12 14 17 20 22 23 23 22 23 25 27 30 29 28 28 28 29 29 27 25 25 26 24 22 21 21 20 18 17 16 14
3 3 3 3 3 2 1 3 5 6 8 13 16 17 18 19 20 22 24 24 24 27 30 31 30 30 30 30 31 30 29 29 29 27 24 23 23 22 20 18 16 13
5 4 4 3 4 3 2 1 2 4 5 9 13 14 16 17 18 20 23 24 24 25 29 32 32 31 32 32 31 31 31 30 27 25 23 22 21 20 19 17 15 13
6 5 4 2 2 3 2 3 3 4 5 7 9 12 15 17 18 19 20 21 23 24 28 32 33 31 31 32 33 32 31 30 27 24 24 22 20 19 17 15 12 10
3 4 4 2 2 2 3 4 3 3 5 7 8 10 12 14 16 18 18 18 20 23 26 29 31 30 28 29 32 33 33 33 31 29 27 23 21 18 16 16 15 12
3 4 3 3 3 4 5 5 3 4 6 7 9 10 10 10 13 15 15 15 16 21 25 25 26 27 28 28 30 33 35 35 34 32 27 22 20 20 20 20 18 15
4 4 3 3 4 4 4 4 3 4 5 6 8 9 9 9 11 13 14 13 13 18 23 22 20 22 27 30 31 33 35 35 33 31 26 21 22 23 23 21 18 14
4 3 2 2 3 4 3 3 4 5 5 6 8 9 10 9 10 11 13 13 13 16 20 20 19 20 25 30 31 31 32 32 32 31 27 25 25 23 20 18 16 15
5 4 3 3 4 4 3 4 5 7 6 6 8 10 10 10 10 11 12 13 14 17 19 19 20 20 24 29 31 30 30 30 31 30 27 24 21 17 14 15 15 14
5 5 5 6 6 5 5 6 7 7 7 6 8 10 11 11 11 11 13 15 17 19 19 19 19 19 21 25 28 29 30 29 29 28 24 19 15 12 12 13 13 12
7 8 8 8 8 7 7 8 7 7 7 7 9 10 12 13 12 13 16 19 20 20 18 18 17 17 18 21 23 26 28 27 26 25 21 17 14 12 11 11 11 9
9 10 10 9 9 8 9 9 9 9 9 8 9 11 12 13 13 14 19 22 20 18 16 16 16 16 18 21 23 25 26 25 23 22 20 17 15 13 11 9 9 12

ECMWFNIL_850_spd_003.txt.gz
Wind_Speed
22 15 14 15 13 14 15 12 9 8 7 8 8 8 8 8 7 7 8 8 8 8 7 6 5 5 5 6 6 5 4 3 3 3 3 3 2 2 1 1 1 1
23 17 16 17 15 15 15 12 11 9 7 7 5 5 6 5 5 7 7 7 7 7 7 6 5 4 3 3 4 3 3 2 2 2 3 3 3 3 3 3 3 3
23 19 18 19 16 16 16 13 12 9 8 7 4 2 3 3 2 4 5 6 5 6 6 6 5 5 3 2 2 2 2 1 1 2 3 3 3 3 3 4 4 4
22 20 18 19 17 16 17 15 13 11 10 9 7 5 4 2 1 2 3 3 4 4 4 4 4 4 4 2 2 2 1 1 1 1 1 2 2 2 3 3 3 4
22 20 18 19 18 17 16 16 15 13 12 11 9 8 7 6 4 2 2 2 2 2 2 1 1 2 2 1 1 2 1 1 1 1 1 1 1 2 2 2 2 3
23 21 20 20 20 18 16 16 16 15 14 12 11 11 10 9 7 5 4 4 3 2 2 1 2 2 1 2 3 2 2 2 2 3 3 2 2 1 1 1 1 1
22 21 21 21 21 20 18 16 17 16 14 12 13 13 13 11 9 7 6 6 4 4 4 3 3 4 4 4 5 5 5 5 5 5 5 3 3 3 3 3 4 3
21 20 21 21 20 21 21 19 18 18 15 13 14 15 14 12 10 8 7 7 6 6 6 5 4 5 6 6 7 8 8 8 8 7 7 7 6 5 5 5 6 6
22 22 22 20 18 19 23 23 21 20 17 15 15 16 15 13 11 9 7 6 6 7 8 9 8 8 8 8 9 9 9 10 11 10 10 10 10 9 8 8 8 8
23 24 24 23 19 18 22 24 23 22 19 17 17 17 17 16 13 11 9 8 7 5 7 10 12 14 14 12 12 12 12 13 13 13 12 13 13 12 12 12 10 9
23 23 23 23 22 21 22 22 21 21 20 20 20 19 18 18 16 14 12 13 12 10 10 10 13 16 18 19 17 16 16 16 16 15 14 15 15 15 15 14 13 12
22 21 21 22 22 22 22 21 21 20 22 23 22 20 19 18 18 17 15 16 14 11 11 11 13 17 20 21 22 22 20 19 19 18 17 17 18 17 17 16 15 14
22 21 20 20 21 21 19 19 19 20 22 22 23 23 22 20 20 18 18 19 18 15 16 15 15 19 22 22 23 26 25 24 23 21 20 20 20 19 18 18 17 17
25 24 18 13 13 16 18 18 19 19 20 20 20 21 22 22 21 20 21 22 22 20 18 16 17 22 24 24 25 27 28 28 27 25 23 22 21 20 20 20 19 19
18 18 16 10 7 9 13 14 15 16 16 16 16 17 19 21 21 21 22 23 22 20 17 16 19 23 24 26 27 28 30 32 31 28 27 25 23 22 22 22 21 22
9 9 11 12 11 10 10 9 9 11 11 11 12 12 14 16 17 17 18 18 18 19 18 18 20 22 23 26 28 28 29 32 33 31 29 27 25 24 24 24 24 24
9 9 10 12 14 14 13 12 12 13 13 12 12 12 12 13 13 14 14 14 15 17 18 19 20 21 23 26 28 29 30 32 34 34 31 29 28 27 26 26 25 25
10 10 10 10 11 11 9 10 11 11 11 10 9 9 9 10 12 13 12 12 13 14 17 18 19 19 21 25 27 29 31 33 35 35 33 31 30 29 28 27 26 25
10 10 10 11 12 12 11 11 12 11 11 11 10 9 9 10 11 12 12 13 13 14 16 17 18 19 20 23 25 27 31 32 32 31 32 32 32 31 29 28 27 26
12 11 12 13 13 12 11 10 11 12 12 13 12 12 12 12 12 13 13 14 16 17 18 18 19 20 21 23 23 25 29 30 28 28 30 31 31 30 29 28 26 24
12 12 12 12 11 9 7 6 8 9 10 10 10 10 11 11 12 13 13 14 16 17 17 16 18 19 21 23 22 22 25 27 27 28 29 30 29 27 27 26 25 22
12 12 12 11 8 6 5 5 4 3 4 5 6 6 8 8 9 10 12 13 14 14 14 14 15 16 18 19 19 18 19 22 25 27 29 30 28 27 26 26 24 21
11 10 9 8 7 5 4 3 3 2 2 3 4 5 7 8 8 9 11 13 14 15 16 16 16 15 15 15 16 15 16 20 24 27 28 28 26 26 26 25 22 21
9 9 8 7 7 7 6 6 5 4 4 4 4 6 7 8 9 11 13 14 15 17 18 18 17 15 14 14 13 14 16 19 23 25 25 24 23 23 22 19 18 19
6 6 7 8 9 9 9 9 8 7 6 5 6 7 8 9 12 15 15 16 17 18 18 19 17 15 15 14 13 14 15 18 21 23 23 23 22 21 19 17 17 18
6 6 7 9 11 12 11 10 10 10 9 8 7 8 10 12 14 16 17 17 17 18 19 19 18 16 15 14 13 14 14 17 20 21 22 22 22 20 19 19 19 17

ECMWFNIL_850_spd_006.txt.gz
Wind_Speed
16 14 12 12 13 13 14 16 17 16 17 17 17 16 15 14 13 12 11 10 9 9 9 8 8 8 8 8 8 7 6 6 5 5 5 4 3 3 3 2 1 1
18 17 15 14 15 15 15 17 19 19 19 18 17 17 16 14 14 12 12 11 10 9 9 9 9 9 8 7 6 5 5 5 5 5 5 4 4 5 4 3 3 2
20 20 19 17 16 17 17 18 19 19 19 18 17 17 15 14 14 13 12 11 11 10 9 9 9 9 8 7 6 5 5 6 6 6 6 6 6 6 5 5 5 4
23 22 22 18 16 17 18 18 19 18 18 17 16 16 15 14 13 12 12 11 10 9 9 8 8 8 7 6 5 5 5 5 5 5 5 6 6 6 6 6 5 4
25 24 24 21 17 17 18 19 19 19 18 17 16 15 15 14 12 11 10 9 9 9 8 8 7 6 6 6 5 4 4 5 5 5 4 4 4 4 4 4 4 3
29 26 26 24 20 18 19 20 20 19 19 17 16 15 14 13 12 10 9 8 8 7 7 6 6 5 4 4 4 3 3 3 2 3 3 2 2 1 1 1 1 1
31 29 28 26 23 21 20 20 21 21 20 19 17 14 13 13 12 10 10 9 8 7 6 6 6 5 4 3 2 2 1 0 1 1 1 1 2 2 2 2 2 2
31 29 29 28 26 24 22 22 23 22 21 21 19 15 14 13 12 11 10 9 8 7 7 7 7 6 5 3 2 2 2 3 4 4 4 4 5 4 4 4 5 5
33 30 31 32 28 25 25 25 26 26 25 23 21 17 15 14 12 12 11 10 9 8 8 7 6 4 3 1 1 2 3 5 6 7 7 7 8 7 7 7 8 8
33 31 32 32 28 26 27 28 28 29 28 25 22 20 18 17 15 14 13 12 11 10 10 8 6 4 3 3 3 4 6 7 8 9 9 9 10 10 10 10 11 11
32 31 31 30 28 28 30 31 33 34 32 28 24 22 21 20 19 18 17 15 13 12 10 8 6 5 6 7 8 9 9 10 11 12 12 12 12 12 12 12 12 13
30 28 28 29 30 32 32 30 30 31 31 28 26 24 22 22 21 20 18 16 13 12 11 10 9 8 10 13 14 14 14 13 13 15 16 17 16 15 15 15 14 14
29 29 29 29 29 29 29 26 22 22 21 21 24 26 27 26 23 21 18 15 13 13 13 13 12 12 14 17 17 17 16 16 15 17 19 21 20 19 18 18 17 16
22 25 27 27 25 23 22 20 20 20 17 15 19 24 25 24 20 17 16 15 14 14 15 15 14 15 18 20 19 17 17 17 18 19 21 24 25 23 21 21 20 19
18 19 20 19 19 20 17 15 17 20 20 20 21 22 20 18 16 16 15 15 16 17 18 18 19 20 20 19 17 17 18 19 21 23 23 24 26 27 26 24 23 23
21 22 21 17 16 19 20 20 21 23 23 23 23 22 19 17 18 19 17 17 18 19 20 21 22 21 20 18 17 18 19 20 23 25 26 26 26 28 30 28 27 26
18 21 23 23 20 18 18 19 20 20 20 20 20 19 18 17 18 17 16 16 17 17 17 18 18 17 17 17 17 17 18 19 22 24 26 27 27 28 31 31 29 28
13 15 18 20 19 17 16 16 15 15 15 16 16 15 15 15 15 15 15 15 16 15 15 15 15 16 17 18 18 18 18 20 21 22 24 26 27 28 30 31 30 30
13 14 16 17 17 16 15 13 11 11 11 12 13 12 12 13 13 13 14 14 14 14 14 15 16 17 18 18 19 20 20 20 21 21 23 24 25 27 30 31 30 31
15 15 15 16 15 14 13 10 9 9 9 9 10 11 11 11 11 12 13 13 13 13 14 16 17 18 18 19 21 22 23 22 21 21 22 22 22 25 29 31 31 31
14 15 15 14 14 13 13 11 10 10 11 11 12 12 12 11 11 12 12 13 13 13 14 15 16 17 17 18 20 21 21 21 20 19 19 19 20 24 28 29 28 28
13 14 14 15 15 14 13 12 12 13 13 13 13 13 14 13 13 13 13 14 14 14 15 15 15 15 15 16 17 18 18 17 16 15 14 15 17 22 25 26 25 26
12 13 13 13 14 12 10 9 10 11 11 11 10 10 10 10 10 10 10 11 12 13 14 14 15 15 15 14 14 15 15 15 14 13 12 12 15 19 23 25 26 27
12 13 12 12 12 10 8 6 6 6 8 9 8 8 8 9 9 8 9 10 11 12 13 14 15 16 15 14 13 13 13 13 13 12 12 12 14 17 20 23 24 24
13 13 12 10 9 8 7 5 5 5 6 7 7 7 8 9 10 10 11 11 13 14 15 16 17 17 17 15 15 14 13 13 12 11 11 13 15 17 20 22 22 22
11 11 9 8 8 7 6 6 7 7 7 7 6 7 8 10 11 12 12 13 14 16 17 18 18 19 18 17 16 16 15 14 12 11 12 14 15 17 19 21 22 22

ECMWFNIL_850_spd_009.txt.gz
Wind_Speed
16 16 14 12 12 11 10 11 12 12 12 12 11 11 11 12 11 11 11 10 10 10 11 11 10 11 11 11 11 10 10 8 8 7 6 5 5 4 3 2 2 2
17 17 15 12 12 13 12 13 16 16 16 15 14 13 13 13 13 12 12 12 12 12 12 11 11 10 10 10 10 9 9 8 7 7 7 6 5 5 5 4 4 3
20 19 18 14 13 14 15 18 19 18 18 17 16 15 15 14 15 14 14 14 14 14 13 12 12 11 10 10 10 9 9 9 9 9 9 8 7 7 7 6 6 5
23 20 21 19 14 14 17 21 22 21 20 19 18 17 16 16 16 15 15 15 15 14 14 13 12 12 12 11 11 10 10 10 10 10 9 9 9 8 7 7 6 6
26 22 23 25 18 15 19 23 23 22 21 20 19 18 17 17 16 16 16 15 15 15 14 13 13 12 12 12 12 11 10 10 9 9 8 8 8 7 6 5 5 5
30 26 26 29 25 17 18 23 24 23 21 20 19 18 17 17 16 15 15 14 14 14 14 14 13 12 12 11 11 10 10 9 8 7 6 6 5 4 4 3 2 2
31 27 26 30 30 23 18 21 23 22 21 19 18 17 17 16 14 14 13 12 12 12 12 12 12 12 11 11 10 10 9 9 8 7 6 5 3 2 1 1 0 1
30 27 27 30 32 28 21 20 21 21 20 19 18 17 15 14 13 12 12 12 11 10 10 10 11 11 11 11 10 9 9 8 8 7 6 5 4 3 2 2 2 3
29 29 28 29 32 32 26 22 21 20 20 20 19 17 15 14 13 11 11 11 10 10 10 10 10 10 10 9 8 7 6 6 6 6 6 5 4 3 2 2 3 4
30 31 29 29 33 35 31 26 24 23 22 21 20 20 18 16 15 14 12 12 11 10 10 10 9 9 8 7 5 4 4 3 4 3 3 4 3 2 2 2 3 4
30 30 30 30 32 36 36 32 29 26 24 25 25 24 23 21 19 17 16 14 12 11 10 10 9 8 7 5 3 4 5 6 6 6 5 5 5 4 4 5 5 5
30 29 31 29 30 36 40 38 34 27 23 25 28 27 26 24 22 21 20 18 16 14 13 11 10 8 7 7 6 7 9 11 11 10 9 9 10 9 8 8 9 9
28 28 30 31 32 36 38 36 34 28 26 29 30 29 30 29 25 25 25 23 21 18 16 14 12 11 11 10 10 11 14 15 15 14 14 14 14 13 13 13 12 12
27 26 27 29 31 33 32 28 25 22 23 28 30 29 30 28 25 25 25 25 22 19 16 15 14 15 14 14 13 15 17 17 16 15 15 16 17 16 16 17 16 16
26 25 23 22 22 23 24 25 24 20 18 21 26 27 26 24 25 27 27 26 23 18 16 15 15 16 17 17 16 17 18 17 16 17 18 19 19 19 19 18 18 19
25 26 25 23 22 22 25 28 28 25 21 22 26 29 28 27 27 27 28 27 24 21 20 19 17 18 19 19 20 21 21 19 18 19 20 20 20 19 19 19 19 20
23 26 27 26 25 27 29 29 26 22 20 22 25 27 29 30 27 25 26 26 24 22 21 20 19 20 22 23 23 23 21 19 19 20 21 20 20 20 20 19 19 19
19 21 23 23 24 26 26 25 24 22 22 22 23 23 25 26 24 22 23 23 21 19 19 19 19 21 21 22 21 20 19 19 20 21 21 21 21 21 21 20 19 19
15 16 18 21 23 23 23 23 22 20 20 20 19 19 21 22 21 20 20 19 17 16 16 17 18 18 17 17 18 19 20 21 21 22 23 23 23 22 21 20 19 19
15 16 17 20 21 20 19 19 18 16 16 15 14 16 18 19 18 18 17 16 15 15 15 15 14 13 14 15 17 18 20 21 22 22 23 23 23 22 21 19 18 17
12 13 16 18 18 17 16 15 15 14 14 13 13 14 15 15 14 14 14 14 14 14 14 13 13 13 14 15 15 16 17 18 18 18 18 19 19 19 18 18 16 15
11 12 13 14 15 15 15 15 15 14 14 14 14 14 14 14 13 13 13 13 13 13 14 14 14 14 13 13 12 12 13 13 12 12 13 14 15 15 15 15 13 13
12 13 13 14 15 15 15 15 15 15 15 15 15 14 14 14 13 13 13 12 12 12 12 12 11 11 10 10 10 11 11 12 11 11 12 12 12 12 12 11 10 11
13 15 15 15 15 15 14 14 14 14 15 15 15 14 13 13 13 12 11 10 9 8 8 8 8 9 10 12 12 13 13 14 14 14 14 14 13 12 11 10 9 10
14 15 16 16 17 16 14 13 12 12 12 13 14 13 13 12 11 10 9 8 7 7 8 8 9 11 12 14 14 14 15 15 15 16 15 15 13 12 11 10 11 11
16 18 17 16 15 15 14 14 13 11 10 10 11 11 10 10 9 9 9 9 9 10 10 10 11 13 14 15 15 15 15 15 15 15 15 14 13 11 10 10 12 13

ECMWFNIL_850_spd_012.txt.gz
Wind_Speed
13 11 10 7 5 6 6 6 6 5 3 3 4 6 7 8 7 7 7 7 8 8 9 9 10 10 11 11 10 10 10 10 9 9 8 7 6 6 6 6 7 7
13 10 9 6 4 6 6 5 5 4 4 5 6 7 8 9 8 8 7 7 8 8 9 9 9 9 9 10 10 10 10 9 9 9 8 7 7 7 7 8 9 10
13 10 11 8 5 6 7 6 6 6 6 7 8 9 9 9 9 8 8 8 8 9 9 9 9 9 9 10 11 11 11 11 10 11 10 10 10 10 10 10 11 11
13 12 13 10 8 8 9 8 8 8 9 9 9 10 10 10 10 9 9 8 8 9 9 9 9 10 10 11 12 12 12 12 12 13 12 12 11 11 11 11 11 11
17 15 14 13 12 11 11 10 10 11 11 10 10 10 10 10 10 10 10 10 10 9 9 9 9 9 10 10 11 11 12 13 13 12 11 11 11 10 9 9 9 8
21 20 18 18 17 15 14 11 11 13 12 11 11 11 10 10 10 10 10 10 10 10 9 8 8 8 8 9 9 9 10 10 10 11 10 9 8 8 7 6 6 5
25 24 22 24 22 18 17 14 13 15 15 13 12 11 11 10 9 9 9 9 9 8 8 8 7 7 7 8 8 8 8 7 7 7 6 6 5 5 4 4 3 2
28 24 21 26 27 21 19 18 16 16 17 16 14 12 11 10 10 9 8 7 7 6 6 6 5 5 5 6 6 5 5 4 3 3 3 2 2 2 1 1 2 2
31 25 20 25 29 24 20 20 20 19 19 18 16 13 12 11 11 10 9 8 7 6 6 5 5 4 3 3 3 3 3 3 2 2 2 2 2 2 2 3 3 3
33 28 21 25 30 26 22 22 23 24 21 20 19 16 14 14 13 12 11 10 9 8 8 7 7 6 5 3 2 2 1 1 1 1 1 1 2 2 3 4 4 5
33 30 24 26 31 27 24 24 26 27 25 23 23 21 18 17 15 15 13 12 12 11 10 10 9 8 6 5 4 4 3 2 2 4 5 5 4 4 5 5 5 6
31 31 26 26 30 27 26 25 26 30 30 27 26 25 23 20 19 19 17 16 15 14 13 12 10 9 8 7 7 6 6 6 5 7 9 9 9 9 9 9 9 9
30 30 27 27 29 26 26 27 26 29 32 32 31 29 24 20 21 22 21 20 18 16 15 14 13 13 12 10 9 9 9 9 10 11 12 12 13 12 12 13 12 12
26 25 25 27 30 27 27 28 27 27 30 33 33 30 24 20 22 25 25 23 20 17 16 15 14 14 13 11 12 12 12 13 14 15 15 14 14 13 14 14 15 15
19 20 22 25 30 30 29 29 28 27 26 26 26 28 27 24 24 26 26 25 21 17 16 18 19 18 15 12 12 13 15 16 16 17 17 17 16 15 16 16 17 17
15 18 19 21 26 28 28 28 28 27 24 21 21 25 29 29 28 29 29 27 24 20 19 22 24 21 17 15 15 17 18 18 17 19 21 20 18 18 18 18 17 18
12 15 16 18 21 23 24 25 25 25 21 19 20 23 26 28 28 29 30 28 26 24 22 23 24 22 19 18 19 20 20 20 21 22 21 19 18 18 18 18 18 18
11 13 14 15 17 19 20 21 22 22 19 18 21 21 21 21 20 21 24 25 27 25 22 20 21 22 21 20 20 20 20 20 20 19 17 17 18 19 19 19 19 19
12 14 15 16 17 18 19 21 22 21 18 17 18 17 17 17 16 16 19 22 25 24 20 18 18 19 20 19 19 19 18 16 15 16 17 18 19 18 17 16 16 16
13 14 15 16 17 17 17 18 17 16 15 16 16 15 15 16 16 16 17 19 21 20 17 16 16 17 17 16 15 14 13 14 16 17 17 16 14 13 13 12 13 13
13 14 14 16 16 16 16 15 14 14 15 16 15 13 14 15 15 15 16 16 17 16 15 14 14 13 12 11 11 11 12 13 13 12 11 10 9 10 10 11 11 11
12 14 16 17 18 17 16 15 14 14 15 15 14 14 14 14 14 14 14 14 14 13 13 12 12 12 11 10 10 9 9 9 8 7 7 8 8 9 10 10 11 10
10 10 11 12 13 14 14 13 14 14 15 14 13 13 12 12 12 12 12 12 12 11 11 11 11 11 10 9 8 6 6 7 8 8 8 8 9 9 9 10 10 9
9 8 8 7 7 9 11 12 12 13 13 13 12 12 12 12 12 12 12 12 12 11 11 11 10 9 8 7 6 6 7 8 8 9 9 10 10 10 10 10 10 9
11 9 10 9 9 9 11 11 11 12 12 12 13 12 12 13 12 12 12 12 11 11 10 9 8 7 6 7 7 7 8 8 9 10 10 11 11 12 11 11 10 9
13 12 12 13 12 11 10 10 11 13 14 14 14 14 14 14 14 13 12 11 10 8 7 7 6 6 7 7 8 8 8 9 9 9 10 11 12 12 11 10 9 8

ECMWFNIL_850_spd_015.txt.gz
Wind_Speed
4 3 2 1 2 3 2 2 6 6 5 5 6 7 8 8 8 8 8 9 9 9 10 10 10 9 9 10 9 9 9 10 10 10 10 9 9 9 9 10 11 11
9 8 5 4 4 4 4 4 5 5 3 4 5 7 8 8 7 8 8 9 9 9 10 10 11 11 10 10 10 10 10 10 10 10 9 9 9 10 11 12 13 14
14 12 9 6 4 5 5 6 7 5 1 3 5 7 8 8 7 7 7 8 8 8 9 9 10 10 9 9 8 8 7 7 9 10 9 10 11 12 13 14 15 14
16 16 16 14 9 6 4 4 5 4 1 3 5 7 8 8 7 6 6 7 7 7 7 8 8 9 8 8 7 7 7 7 9 10 11 12 13 12 13 14 14 13
19 21 22 19 14 7 4 2 1 2 2 4 6 7 8 8 8 7 6 6 6 6 7 7 7 8 8 8 8 7 8 9 10 11 11 12 13 12 12 12 11 11
20 24 26 19 13 14 13 9 8 6 4 5 5 6 7 7 7 7 7 6 7 7 7 7 7 8 8 8 8 8 8 9 10 10 10 10 10 10 10 9 9 8
19 23 25 19 13 15 15 16 14 9 7 7 6 5 5 5 6 6 7 7 6 7 6 6 7 7 7 8 8 8 8 8 8 8 8 8 8 7 7 7 7 6
17 20 22 18 14 13 17 19 16 11 10 9 7 7 6 6 6 6 7 7 7 7 7 6 6 6 7 7 8 9 8 8 8 8 7 7 6 6 6 6 6 6
15 18 18 15 14 16 20 21 17 12 12 11 10 10 9 8 8 8 8 9 9 9 8 7 7 6 6 7 8 8 8 7 7 7 6 6 5 4 4 4 4 4
14 16 16 16 17 20 23 24 20 15 14 14 13 13 12 11 11 10 10 10 10 10 9 9 8 7 7 7 7 7 7 7 6 4 4 3 3 2 2 2 2 3
12 13 15 19 20 19 21 24 23 19 17 17 17 16 15 15 14 12 12 12 11 11 10 9 9 8 8 7 8 8 7 7 6 4 2 1 0 2 3 3 4 4
8 10 13 18 18 16 16 19 23 23 20 18 19 19 19 18 17 16 14 13 12 11 10 9 8 8 8 8 8 8 8 8 7 5 4 3 4 4 5 6 7 7
8 10 12 15 16 16 16 18 22 25 23 20 20 22 23 22 21 20 18 16 15 13 12 11 10 9 9 10 10 10 9 9 8 8 7 6 6 7 8 9 10 10
10 11 13 14 16 17 18 19 23 26 25 23 22 23 25 25 25 23 21 19 18 16 15 14 13 12 12 12 12 12 10 10 10 10 10 10 9 8 9 10 12 12
7 10 14 16 18 21 22 22 25 28 26 24 23 22 23 25 27 26 23 21 20 19 19 18 17 17 16 14 15 14 12 10 9 10 12 12 12 11 12 13 14 14
4 7 10 14 16 20 21 21 24 29 27 22 20 20 21 24 26 26 24 22 20 20 21 22 22 22 20 18 18 19 16 13 12 14 14 13 13 14 15 14 14 14
2 4 8 10 12 14 16 17 20 26 28 25 22 21 21 23 25 27 27 27 25 25 26 25 24 23 23 22 20 17 15 15 17 18 17 16 15 15 14 13 14 15
2 4 6 8 9 11 12 14 17 21 25 26 24 21 20 22 25 27 29 32 34 35 32 27 24 22 21 21 20 18 17 17 19 19 17 16 14 14 14 15 16 17
3 4 5 7 9 9 10 11 14 18 20 21 20 18 19 22 22 22 25 29 34 36 33 28 25 23 18 17 18 18 18 18 18 17 16 14 14 14 15 15 15 14
5 6 7 8 9 10 10 11 13 16 17 18 19 19 20 20 18 19 20 22 24 26 25 23 22 21 18 15 14 14 16 16 14 13 12 12 12 11 11 10 9 9
6 7 8 9 10 12 13 14 16 18 20 21 22 22 21 18 17 18 19 18 17 17 17 18 18 19 17 15 13 13 14 13 11 9 9 8 7 7 6 5 5 5
6 7 8 8 10 13 16 18 19 20 22 22 21 21 20 18 18 18 17 15 14 14 15 16 17 17 16 15 14 14 13 11 9 8 6 6 5 4 3 3 4 4
7 7 8 8 8 10 13 16 18 18 19 19 20 21 20 19 18 18 16 15 14 15 16 17 18 17 16 16 15 14 12 10 8 6 5 5 4 3 4 5 6 6
10 9 9 9 8 8 8 11 13 15 16 18 19 20 19 17 17 16 15 16 16 16 17 17 17 17 17 16 15 13 11 9 7 6 5 4 4 5 6 7 8 8
13 13 12 11 11 9 7 7 9 11 12 14 15 14 14 14 13 13 14 15 15 16 16 16 17 17 17 16 14 12 10 8 7 6 5 5 5 7 7 8 9 9
14 14 15 15 13 11 10 9 9 9 10 10 11 11 11 12 11 12 13 14 14 16 16 17 18 18 17 15 14 12 10 8 7 6 5 5 6 6 7 7 7 7

ECMWFNIL_850_spd_021.txt.gz
Wind_Speed
11 10 10 9 8 8 8 7 5 5 4 4 5 6 5 5 5 5 6 5 5 6 8 8 7 8 8 9 9 8 8 10 9 9 8 9 9 9 8 8 7 6
14 13 13 11 9 9 9 8 8 7 7 6 7 7 7 7 6 5 5 5 5 6 9 9 9 9 8 9 9 8 8 10 9 9 9 9 9 9 9 9 10 9
17 16 15 12 10 8 8 8 9 9 11 11 9 9 10 10 8 6 6 6 6 8 9 10 10 9 8 9 9 8 8 9 9 8 9 9 9 9 10 11 11 10
19 18 15 13 10 8 8 9 9 9 13 13 12 12 12 12 11 9 8 7 7 8 10 11 11 10 9 10 9 9 9 9 8 9 9 10 10 11 12 12 11 10
20 19 17 14 11 9 8 9 8 8 10 12 13 13 14 13 12 10 8 7 8 9 10 11 12 11 11 11 11 11 11 10 9 10 10 11 12 13 13 13 13 11
21 21 19 16 13 10 10 10 9 8 8 10 12 13 13 13 12 10 8 8 8 8 10 10 11 12 12 12 12 12 11 11 11 11 11 12 12 12 12 12 12 11
21 23 21 18 15 12 12 12 10 8 9 10 13 14 13 13 12 10 8 8 8 8 9 10 11 12 12 13 13 13 13 13 13 11 11 12 12 12 11 10 9 8
20 22 22 21 18 14 14 14 10 8 9 11 12 13 12 12 12 10 9 9 9 8 8 9 10 12 13 12 13 15 16 15 13 11 11 12 12 10 9 9 8 7
18 21 21 20 17 14 16 15 10 9 11 12 11 11 11 10 11 11 11 10 9 9 9 9 10 11 12 11 13 16 16 15 12 11 12 13 11 9 8 8 8 7
14 17 17 15 13 15 19 15 9 9 12 13 11 11 11 10 10 11 11 11 10 10 10 10 10 11 11 11 13 14 14 14 12 12 12 11 9 8 8 7 7 6
12 13 13 12 12 15 19 18 12 10 12 13 12 11 11 11 11 11 11 11 11 11 11 10 11 11 11 11 12 12 12 12 11 11 11 10 9 9 8 7 7 6
12 12 12 12 12 13 16 18 16 13 12 13 12 11 12 12 12 12 11 12 12 11 12 11 11 12 12 12 12 12 12 12 11 11 10 9 8 8 7 7 6 6
10 10 10 10 10 11 13 15 15 13 13 13 12 11 12 13 13 13 13 13 12 12 13 13 13 13 13 13 13 13 13 12 12 11 10 9 8 7 6 6 6 6
9 9 9 9 10 12 13 12 12 12 13 13 13 13 14 14 14 14 14 14 14 14 14 14 14 14 14 14 14 13 14 13 12 11 9 8 8 7 7 7 7 8
8 8 9 10 11 12 12 12 12 13 13 13 13 13 15 15 14 15 15 15 15 15 15 16 16 15 15 16 15 15 15 14 13 13 12 11 9 8 7 8 8 10
7 8 9 10 10 11 10 11 12 14 15 14 13 13 13 15 15 15 16 17 16 17 17 17 17 18 19 19 18 17 15 15 16 18 17 16 14 12 9 8 7 7
5 6 7 8 9 9 9 10 11 13 15 16 15 14 14 14 16 17 17 18 18 18 19 19 19 21 22 23 22 20 18 16 17 18 17 16 16 14 10 11 11 10
3 4 4 5 6 7 8 9 10 11 15 16 16 17 17 17 17 18 19 18 19 20 20 21 23 24 24 24 24 24 22 19 19 19 19 18 18 17 18 21 18 13
2 2 2 2 4 6 7 8 9 10 12 14 15 16 18 19 20 20 19 19 20 21 21 23 27 27 25 24 25 25 23 21 21 21 22 21 20 20 21 20 15 12
2 0 1 2 3 5 6 6 7 9 10 13 14 15 16 20 22 22 20 20 21 22 23 25 27 28 27 27 29 27 24 25 25 22 22 25 24 22 19 16 15 16
3 2 1 2 4 5 6 6 7 9 10 11 12 14 16 19 21 22 23 23 23 24 26 27 27 28 28 29 30 29 28 30 29 23 22 25 24 21 19 17 17 16
4 3 2 2 4 5 6 7 8 9 10 10 11 13 15 17 19 20 22 23 23 22 25 29 29 29 29 30 33 34 32 33 30 24 23 23 20 17 19 20 17 12
5 4 4 3 4 5 6 7 8 9 10 11 12 13 14 16 18 18 20 22 22 21 23 26 27 27 28 29 31 32 33 34 32 27 24 21 20 20 22 22 17 11
5 5 5 5 5 6 7 7 8 9 10 11 13 14 15 16 17 18 19 21 22 22 23 23 24 26 27 27 25 24 26 29 29 27 24 21 19 20 22 20 16 13
8 8 8 8 7 7 8 8 9 10 11 12 13 14 15 16 17 18 19 20 21 23 24 23 23 26 27 26 25 23 22 22 23 24 24 21 19 19 19 16 15 17
11 11 12 14 15 15 14 13 13 12 12 13 14 14 15 16 17 17 19 20 21 23 25 25 24 26 27 25 23 22 22 23 24 26 27 24 21 19 18 17 18 18

ECMWFNIL_850_spd_024.txt.gz
Wind_Speed
10 9 8 9 10 10 10 7 5 7 6 6 6 6 6 6 7 8 7 6 6 7 7 7 10 11 10 9 9 12 14 13 13 12 12 13 15 15 13 10 9 9
12 10 9 11 11 9 8 7 6 7 7 6 7 8 7 6 6 7 6 6 6 8 9 9 10 10 10 9 9 13 14 13 13 12 12 14 14 14 14 13 11 10
13 11 10 12 11 8 7 7 7 8 7 5 7 8 6 6 6 6 6 7 6 7 10 10 9 9 10 10 10 12 13 13 13 11 10 11 11 12 14 14 13 12
13 12 12 12 11 8 7 6 6 6 5 5 8 7 5 5 6 6 6 6 5 7 10 11 9 9 9 9 9 11 11 10 10 9 9 10 12 15 16 14 12 12
13 12 13 13 11 8 6 4 4 4 4 6 6 5 4 5 6 5 5 4 4 6 9 11 10 10 9 9 9 9 9 9 9 8 9 11 14 16 15 13 12 12
12 12 13 13 10 8 6 4 3 4 4 4 4 2 3 5 6 5 5 4 4 4 6 8 9 9 9 8 8 8 9 9 9 9 10 13 14 14 14 13 14 15
10 12 13 12 10 8 7 5 4 5 5 5 4 3 3 6 7 6 5 4 3 3 4 6 8 8 9 9 9 9 10 10 11 11 13 14 14 14 13 12 13 16
10 11 12 12 11 10 8 6 6 7 6 5 3 4 6 7 7 6 5 4 4 4 4 5 6 7 9 9 9 11 12 13 12 12 14 15 15 14 12 10 11 12
10 11 11 12 13 12 10 8 8 8 6 5 5 5 7 7 8 7 7 6 6 5 4 5 5 7 9 8 10 13 15 14 11 12 14 15 14 12 12 11 10 9
10 10 12 14 14 13 10 9 11 10 7 5 5 5 6 8 8 8 9 8 8 6 5 5 6 8 8 8 10 14 15 13 12 14 15 15 12 10 9 9 7 6
11 11 13 15 14 12 11 10 12 10 6 6 7 7 9 10 9 9 10 10 9 7 6 6 7 8 8 8 10 13 14 12 12 13 13 12 10 8 7 7 6 4
13 13 13 13 12 11 11 12 11 8 6 8 9 9 10 11 10 10 10 10 10 9 8 8 8 9 9 8 10 11 12 11 11 12 12 11 11 9 8 7 6 5
11 11 11 10 11 11 12 12 11 9 9 10 10 10 10 11 11 10 10 10 10 10 10 9 9 9 10 11 11 11 11 11 11 13 13 12 12 10 8 7 7 6
10 9 8 7 8 10 10 10 11 11 10 11 11 10 10 11 11 11 12 11 11 11 11 12 11 11 12 14 13 13 13 14 14 14 13 12 12 10 9 11 10 10
9 9 9 7 7 9 9 9 9 10 11 12 11 11 11 11 11 11 12 13 13 12 12 13 14 14 14 15 15 15 15 16 15 15 14 13 14 14 14 15 13 13
8 8 9 9 9 10 10 10 8 8 10 11 11 12 13 12 12 12 12 13 14 14 15 16 16 17 17 17 16 16 16 17 16 16 16 16 17 17 18 17 15 14
6 6 7 7 8 8 8 8 9 9 11 12 12 12 12 13 14 14 14 14 14 15 16 17 18 19 18 18 19 19 19 19 19 19 20 20 19 19 19 18 18 16
4 4 4 5 5 5 5 6 8 9 11 13 14 14 14 15 15 16 17 17 17 17 16 17 19 20 20 21 22 22 23 23 22 22 23 22 21 21 20 20 19 18
4 2 2 2 3 4 4 7 9 9 10 12 14 15 17 18 18 18 18 20 21 21 19 19 19 19 21 24 25 25 27 27 26 25 24 24 24 24 23 22 21 20
6 4 3 3 1 3 5 6 8 9 11 13 15 16 17 18 20 21 21 21 22 23 24 25 24 22 23 25 26 27 29 30 29 28 26 25 26 27 26 25 24 23
9 7 6 5 4 3 4 5 6 8 9 11 13 14 15 17 19 19 20 21 23 24 26 28 28 26 27 28 29 29 30 31 31 30 29 28 27 27 27 27 26 26
9 8 7 5 4 3 4 5 6 8 8 8 9 11 13 15 17 17 17 19 21 24 26 29 29 28 28 30 31 31 31 32 34 34 32 29 25 25 26 25 26 26
5 4 3 2 2 2 3 4 5 6 7 8 9 10 12 13 15 17 17 18 20 23 25 28 29 29 29 30 31 32 33 34 35 36 35 32 27 26 25 24 25 25
7 6 6 7 6 6 6 7 7 6 6 7 9 12 14 15 16 17 18 19 20 22 23 25 28 29 30 30 31 33 34 34 35 37 39 37 34 32 29 26 27 26
12 12 12 13 14 14 13 12 11 11 10 9 10 11 14 15 16 18 20 20 21 22 23 24 26 28 28 28 29 31 32 33 35 38 40 38 36 35 32 30 30 27
14 15 15 17 18 20 20 19 18 19 18 17 16 15 15 16 16 18 20 21 22 22 22 23 25 26 26 25 27 28 30 33 35 36 35 34 33 33 32 31 31 28

ECMWFNIL_850_spd_027.txt.gz
Wind_Speed
20 18 18 18 18 16 14 14 13 12 10 10 11 8 8 12 13 13 12 10 8 9 11 12 11 9 10 12 13 12 13 13 13 14 16 17 17 17 17 16 15 16
19 18 18 19 18 15 14 14 13 12 10 10 10 7 7 11 13 13 13 11 9 10 14 14 11 9 11 13 13 13 14 14 14 17 19 20 18 17 17 16 15 16
19 18 18 18 17 15 15 14 13 11 9 9 9 7 7 9 11 12 12 11 11 14 16 15 12 10 11 13 13 13 13 13 14 16 19 19 17 16 16 16 16 16
20 19 18 17 15 14 13 12 12 10 8 8 8 7 6 7 9 11 11 10 14 17 16 15 14 12 12 13 14 14 14 14 14 15 17 17 15 15 15 15 15 15
20 19 18 16 14 12 11 10 9 9 7 7 7 5 5 6 8 9 9 10 14 17 17 16 15 13 12 14 14 14 13 13 14 16 17 18 17 15 14 13 13 14
19 18 17 14 13 12 10 10 9 8 6 6 6 5 5 7 8 8 8 9 13 17 17 16 15 13 12 12 14 14 12 11 13 15 18 19 17 15 13 14 15 15
18 17 15 13 13 11 11 11 9 8 8 8 8 6 5 7 8 7 7 8 11 14 16 16 15 13 12 12 13 13 12 12 13 16 18 18 16 16 16 17 18 17
16 15 14 13 13 11 11 11 9 8 9 9 7 5 6 8 8 7 8 9 11 12 14 15 14 14 14 13 13 14 14 15 16 17 18 17 17 18 18 18 16 16
14 13 13 12 12 11 10 10 8 9 9 7 5 5 7 9 9 9 10 11 11 10 11 13 14 16 16 15 16 17 17 17 17 19 19 17 17 18 18 16 14 13
13 12 12 11 10 11 10 9 8 9 7 6 6 6 7 9 10 11 12 11 9 8 10 13 16 17 15 17 20 18 17 16 17 19 19 17 16 16 16 16 14 13
11 11 10 10 10 10 9 8 8 8 7 7 7 7 8 10 11 11 12 11 8 7 10 12 15 15 14 18 21 18 17 17 16 19 19 16 15 14 13 14 13 12
10 10 10 9 9 9 8 8 8 8 8 8 8 9 10 10 9 9 12 11 8 7 8 9 12 12 12 17 21 19 18 18 17 18 18 15 13 12 11 11 11 11
8 8 9 9 8 8 8 7 8 9 8 8 8 7 9 10 8 8 11 12 10 8 7 6 8 10 9 13 19 20 19 18 17 18 18 15 13 13 12 12 11 11
8 6 6 7 8 8 9 8 8 9 8 9 8 6 7 10 9 8 10 10 9 9 9 7 5 7 9 11 14 17 18 17 17 19 19 18 16 16 15 14 13 12
10 9 6 5 6 8 9 9 8 8 9 10 10 7 6 7 8 9 10 9 9 9 10 9 7 6 9 11 12 14 16 17 18 20 21 21 21 20 18 17 15 14
11 10 8 8 8 7 7 7 6 6 8 11 12 9 7 6 6 9 10 10 11 11 10 11 10 8 9 11 12 13 15 17 18 19 21 23 23 22 21 19 17 16
11 10 9 10 11 10 10 10 8 6 9 12 12 10 8 8 7 9 10 9 10 12 12 12 12 11 12 13 13 14 14 16 18 19 21 22 22 22 21 21 19 18
8 9 8 8 9 10 10 9 8 7 10 13 13 12 11 11 11 11 12 11 11 12 14 15 15 15 16 16 16 16 16 17 18 20 21 22 23 22 22 22 21 20
10 8 6 5 3 3 4 4 5 6 8 11 13 14 14 14 13 14 15 15 16 15 16 17 17 18 19 19 19 19 20 21 22 22 22 22 23 23 23 24 24 23
13 11 9 8 5 3 2 2 2 3 5 8 11 13 14 14 15 16 16 17 18 19 19 18 19 19 20 21 22 22 23 24 25 25 25 25 24 24 24 25 25 25
15 14 13 11 8 6 5 4 3 2 1 2 5 7 10 11 13 14 15 16 17 19 20 20 20 21 23 23 23 24 24 25 27 28 28 28 27 26 26 26 26 26
12 11 11 10 9 7 6 4 3 3 3 2 3 5 6 7 8 9 11 13 14 16 18 19 20 22 24 25 25 25 26 26 28 29 30 31 30 29 28 28 27 28
4 5 6 5 5 5 5 3 2 1 0 2 4 5 6 6 8 9 11 12 13 15 17 18 19 20 23 26 27 28 28 28 29 30 31 32 32 32 31 31 31 31
2 3 3 4 4 4 4 4 3 4 4 4 5 8 9 10 11 11 12 13 15 16 17 18 18 18 20 23 26 28 30 30 31 31 32 33 33 33 32 31 31 31
6 7 8 9 10 9 9 9 9 9 9 8 8 9 10 11 12 12 12 13 15 17 18 19 19 19 19 21 23 26 29 30 31 33 34 35 35 35 35 34 32 31
10 10 11 12 13 13 14 14 15 15 15 15 15 15 15 16 16 16 16 16 16 17 19 21 22 21 21 20 21 22 25 27 30 33 36 37 38 38 38 38 36 35

ECMWFNIL_850_spd_030.txt.gz
Wind_Speed
20 19 18 17 16 16 16 14 12 11 9 8 7 8 10 11 10 10 10 8 8 8 8 9 10 9 9 10 10 12 12 11 10 10 10 11 12 13 13 13 13 13
21 20 18 18 17 17 16 14 12 10 7 7 7 6 8 10 10 10 9 8 7 8 8 8 9 10 11 11 11 12 12 12 13 13 13 14 15 15 16 16 16 14
22 20 18 18 17 17 16 14 12 9 7 7 6 4 5 8 9 8 8 6 7 8 9 8 9 11 12 11 11 11 11 13 15 16 16 17 16 16 17 17 16 13
22 19 18 18 16 16 15 13 12 10 8 7 6 4 4 6 7 8 8 6 8 10 11 9 9 11 12 12 11 11 13 15 17 18 18 17 16 15 16 16 15 13
22 20 19 17 16 15 14 13 12 11 9 8 7 6 5 6 8 9 8 8 10 13 12 10 10 11 13 13 12 13 15 16 18 19 18 18 16 15 15 15 15 14
23 21 20 18 17 16 14 13 11 10 9 9 8 6 6 7 8 8 9 10 13 14 13 12 11 11 13 13 14 14 15 18 19 19 18 18 17 16 16 15 16 16
24 22 21 19 18 16 14 12 11 9 9 9 8 7 7 7 7 8 9 11 14 15 15 14 12 11 12 13 14 15 15 18 19 19 19 18 17 16 17 17 18 18
24 23 21 19 17 15 14 12 11 9 9 9 9 8 7 7 8 8 9 12 15 16 16 15 14 12 13 14 14 15 15 17 19 20 19 18 17 17 17 18 19 20
23 22 20 19 17 14 13 12 10 10 9 9 8 8 8 8 8 9 10 12 15 17 16 15 14 13 14 15 15 15 16 18 19 19 19 18 18 18 18 18 19 21
22 21 19 19 17 15 14 12 11 11 10 9 8 8 9 9 8 9 10 11 13 16 17 15 14 14 15 16 16 16 17 20 21 19 18 19 19 18 18 18 18 20
22 21 20 19 18 16 15 13 13 13 11 9 9 10 10 10 11 11 10 9 9 11 15 15 14 14 15 16 17 18 19 21 21 20 19 19 19 18 17 17 17 18
19 19 19 18 18 17 16 15 14 13 12 10 9 11 12 12 13 12 10 8 5 6 12 15 15 15 17 18 18 19 20 21 21 20 20 20 20 18 17 17 17 17
18 18 17 16 16 16 15 15 15 13 12 12 12 13 13 13 13 13 11 9 7 6 10 14 14 15 18 19 19 19 20 21 22 21 20 20 20 19 18 17 17 17
17 18 18 17 15 13 12 13 13 13 13 13 14 15 14 12 11 13 13 11 9 8 8 10 11 13 18 20 19 19 19 19 20 21 20 19 19 19 19 19 19 18
18 19 19 18 15 13 12 12 13 14 14 14 14 13 13 12 10 11 13 13 12 11 10 9 8 9 14 19 19 19 19 19 20 20 21 20 20 20 20 20 20 19
20 21 20 17 15 15 15 14 13 13 13 13 13 12 11 11 10 11 14 15 13 13 13 13 11 9 11 15 17 19 20 20 21 21 21 22 22 22 22 21 20 19
17 18 18 17 16 17 17 16 16 15 15 14 13 12 12 11 10 11 14 15 14 14 15 15 15 13 12 12 14 16 18 20 21 22 22 23 23 23 22 21 20 19
15 15 16 17 18 18 18 18 16 15 15 16 13 11 13 13 12 12 14 15 15 15 16 17 16 16 15 15 14 14 15 16 18 20 23 24 24 24 24 23 22 22
15 14 14 14 14 15 15 15 14 12 14 16 15 11 12 14 15 15 15 16 16 16 17 18 18 17 18 18 18 17 16 16 17 19 21 22 24 25 26 27 26 25
17 16 15 13 11 10 10 8 8 8 9 13 15 15 15 16 18 19 18 18 18 18 18 19 19 19 19 20 21 21 21 21 21 21 22 22 23 24 25 27 28 28
16 15 14 13 11 10 9 9 8 7 7 8 11 14 17 17 18 19 20 21 21 21 21 21 21 21 21 21 21 22 25 26 25 25 25 25 25 25 25 25 26 27
14 14 13 12 11 10 9 10 10 10 10 10 10 11 13 14 14 14 15 16 17 19 22 24 24 24 24 24 23 23 25 27 28 29 29 29 29 28 28 27 27 27
12 12 12 10 10 9 8 9 10 10 11 11 11 11 11 12 12 11 10 9 8 9 12 16 18 19 21 23 25 26 26 26 27 28 30 31 32 31 31 31 30 30
9 10 8 5 6 7 8 8 9 9 10 10 10 10 11 11 12 12 11 10 9 8 9 10 12 12 14 17 20 23 25 26 25 26 28 30 32 33 33 33 34 34
5 8 8 7 8 8 9 10 10 10 11 11 11 11 11 12 12 13 12 12 11 11 12 13 14 14 13 14 15 17 20 22 24 26 27 28 30 32 34 35 37 38
4 5 8 10 10 11 12 12 14 14 15 16 16 16 17 16 17 17 17 16 16 16 16 16 17 17 17 16 16 16 17 20 22 25 27 28 29 31 33 35 38 39

ECMWFNIL_850_spd_033.txt.gz
Wind_Speed
15 12 11 10 8 7 7 6 4 2 1 2 4 4 5 5 5 5 5 3 2 3 5 5 6 7 6 5 7 9 10 10 9 10 10 10 11 11 11 12 13 14
14 12 11 10 9 9 9 7 5 3 1 2 3 4 6 7 7 7 5 4 3 3 4 5 7 7 6 6 7 8 10 9 9 11 12 12 12 12 12 13 14 15
14 12 11 10 8 9 10 8 5 3 2 3 3 3 5 6 6 6 5 4 4 3 4 4 6 7 7 7 8 8 9 10 10 11 12 13 12 13 13 14 15 16
15 12 10 10 9 10 11 9 6 4 4 4 4 4 4 4 5 5 5 4 3 3 4 4 5 6 8 9 9 9 9 10 11 11 12 12 12 13 14 14 14 14
14 12 12 11 11 12 12 9 7 6 5 4 4 4 4 3 4 4 4 4 4 4 5 4 5 6 8 9 9 9 10 11 11 11 11 12 13 13 14 13 12 12
15 15 15 14 13 13 12 10 8 8 6 5 4 4 4 3 4 4 4 5 5 6 6 5 5 7 8 8 9 9 9 10 12 12 12 12 13 13 13 12 11 11
18 18 17 16 15 14 13 11 10 9 7 5 5 5 4 3 3 4 4 5 5 7 7 6 5 7 7 8 8 9 9 10 11 12 13 12 13 13 12 12 11 10
20 19 17 16 16 15 14 13 11 10 8 6 6 6 5 5 5 5 5 6 6 8 8 7 5 6 7 8 8 9 10 11 12 13 13 13 13 13 13 13 12 12
20 18 16 16 15 14 13 12 11 10 9 7 7 7 6 7 7 6 6 7 8 9 9 8 7 6 7 7 8 9 10 12 13 14 14 13 14 14 14 14 14 14
19 18 17 16 15 14 13 12 11 11 9 7 7 8 8 8 7 7 7 8 9 11 10 10 9 8 7 8 8 9 9 10 12 14 14 14 14 15 15 17 17 16
20 18 18 17 16 15 14 13 12 12 10 8 8 8 8 8 8 8 8 9 10 11 11 11 9 8 8 9 10 10 10 10 12 14 14 14 14 15 15 16 18 18
20 19 18 18 18 17 15 14 13 12 10 9 9 9 9 8 8 8 7 7 7 9 11 11 10 9 10 10 11 12 11 12 13 14 13 13 14 14 13 14 16 18
22 22 22 21 20 18 17 16 15 13 11 10 10 9 9 9 9 8 7 5 4 5 8 11 11 10 10 11 12 13 13 14 15 15 14 14 14 14 14 13 14 16
28 26 25 24 21 19 19 19 17 15 13 12 11 10 9 9 9 9 7 5 4 3 4 8 10 10 11 12 13 14 14 15 16 16 15 15 16 16 15 14 14 15
30 27 26 24 22 21 21 20 18 15 13 12 11 10 10 9 9 9 9 7 6 5 4 5 7 9 11 13 14 14 15 16 16 16 16 16 16 17 17 16 15 16
29 27 27 26 23 21 20 19 18 16 14 13 12 11 11 10 9 9 9 9 8 7 6 6 6 6 8 11 14 15 15 16 17 17 17 17 18 18 18 18 18 18
29 27 27 24 21 19 18 18 18 16 15 14 13 13 12 11 10 8 9 9 10 9 8 8 7 5 5 7 11 13 15 17 18 18 19 19 19 20 20 20 20 20
28 26 24 21 19 19 19 19 18 18 18 17 15 14 14 13 11 10 9 10 10 10 10 10 10 9 8 7 8 10 12 15 17 18 20 21 21 21 22 22 22 22
25 25 24 22 22 21 20 20 20 20 20 19 18 16 16 16 15 13 12 12 12 12 13 13 12 12 12 12 12 12 12 13 15 16 19 21 22 23 24 25 25 25
22 22 22 23 23 21 19 20 22 21 21 20 19 18 18 18 18 17 15 15 15 15 15 15 15 15 15 16 17 18 18 18 18 18 19 19 20 22 23 24 25 26
20 20 21 22 21 19 18 18 20 20 20 20 19 19 19 20 20 21 20 19 18 18 18 18 17 17 17 17 18 19 22 23 24 24 24 23 22 22 23 23 24 24
19 19 19 19 17 16 15 15 16 16 17 17 18 19 20 20 21 22 22 22 21 21 22 21 19 18 17 18 18 18 20 23 25 28 29 29 29 28 27 27 26 26
16 15 16 16 15 15 15 15 15 15 15 15 15 17 18 19 20 20 21 22 22 23 25 25 23 22 22 21 21 21 21 21 22 24 27 31 33 33 33 33 32 32
10 10 11 12 12 13 13 12 12 12 13 13 13 13 14 14 15 16 18 18 19 20 23 24 25 25 26 26 26 26 26 26 24 23 23 26 29 32 35 36 37 37
3 2 2 2 4 6 7 7 8 9 9 10 11 12 12 12 13 13 14 15 16 17 20 21 22 22 23 24 25 25 26 28 28 28 27 27 26 27 29 32 34 36
3 3 4 4 4 5 7 8 9 8 8 9 11 12 12 13 14 14 15 16 16 17 19 21 22 22 22 22 23 23 24 25 26 27 28 29 28 26 25 26 27 29

ECMWFNIL_850_spd_036.txt.gz
Wind_Speed
16 13 8 6 7 7 6 7 7 5 4 4 4 3 3 3 3 2 4 5 7 8 8 8 8 9 7 5 5 7 8 8 7 7 7 8 8 9 11 12 12 13
16 13 9 8 8 8 8 7 6 5 3 3 2 2 2 1 0 1 2 5 7 6 7 7 8 8 7 5 6 7 8 9 8 7 8 9 9 10 10 11 13 14
17 14 11 10 10 9 9 9 7 5 3 2 2 2 2 1 1 2 2 4 5 5 5 6 7 8 7 5 6 7 9 9 8 8 9 9 9 9 10 10 12 14
18 16 13 12 10 9 9 9 8 6 3 2 2 1 1 1 1 3 3 3 3 3 3 4 5 6 7 7 7 7 8 8 8 9 9 9 8 8 9 10 11 13
18 17 14 12 10 10 10 10 8 6 4 2 2 1 1 2 1 2 2 1 1 2 2 3 4 5 7 8 7 6 6 7 7 8 9 8 8 8 8 9 9 10
18 16 14 12 11 11 12 11 9 7 5 2 2 1 1 2 1 2 1 1 1 0 1 3 4 5 7 8 7 6 6 6 7 8 9 9 8 8 8 8 8 9
18 16 14 12 12 14 14 12 9 7 5 3 1 0 1 2 1 1 1 1 1 1 1 3 5 6 7 7 7 6 6 6 7 8 9 9 9 10 10 10 9 9
18 16 13 13 14 15 14 12 9 7 5 3 2 1 1 1 1 1 1 1 1 3 3 3 6 7 6 6 6 6 6 6 7 8 8 8 10 10 10 9 8 8
17 15 14 14 14 15 14 11 9 6 5 4 3 2 2 2 2 2 2 2 2 4 4 4 6 7 7 6 6 5 5 6 7 8 7 7 8 8 8 8 7 6
18 16 15 15 15 14 13 11 9 7 6 5 4 4 3 4 4 4 4 4 3 4 5 5 5 7 7 7 6 6 5 6 7 8 7 7 7 6 7 7 6 6
19 17 15 15 15 14 12 11 10 8 7 6 6 5 5 5 6 6 5 5 5 6 6 6 5 6 7 7 8 7 6 6 7 9 10 9 9 8 8 8 9 9
20 18 16 15 14 14 12 11 10 9 8 7 7 6 6 6 7 6 5 5 5 6 7 7 6 5 6 7 8 8 7 7 8 9 11 12 11 10 10 10 11 11
22 19 17 15 14 13 11 10 10 10 9 8 8 6 6 6 6 5 4 4 3 4 5 7 7 6 5 6 7 8 8 8 8 8 10 12 11 10 9 9 9 11
25 21 17 15 14 13 11 11 11 11 10 9 8 7 6 6 6 6 6 5 4 3 3 4 6 6 6 6 6 7 8 9 9 9 9 10 10 9 9 8 8 10
26 22 19 16 14 13 13 13 13 13 12 10 9 8 7 7 7 7 7 5 3 2 1 1 2 3 5 5 6 6 7 8 8 9 10 10 10 9 10 10 9 9
27 27 24 19 16 14 15 16 16 15 14 12 10 9 9 9 8 8 7 5 4 3 2 1 2 2 1 2 4 6 7 7 7 8 10 11 11 11 11 12 11 11
24 27 24 19 18 17 17 17 17 16 16 14 12 11 11 11 9 8 7 6 5 4 3 1 1 1 2 1 1 3 5 7 7 8 10 11 12 12 12 13 13 13
20 24 22 19 19 20 19 18 18 17 17 15 14 13 13 12 10 9 8 8 7 6 5 4 3 2 2 1 1 2 3 5 6 8 10 11 12 12 12 13 13 14
20 23 22 20 22 23 21 18 18 17 17 16 15 15 15 14 12 11 10 9 8 8 7 7 7 7 7 7 7 7 6 6 6 6 8 9 10 12 12 13 13 14
17 18 19 20 21 21 20 18 17 17 16 16 16 16 16 15 14 13 12 11 10 10 10 10 10 10 10 11 11 11 11 11 10 10 10 10 10 11 12 12 13 13
13 14 17 18 19 19 18 17 16 15 15 15 15 16 16 15 15 15 15 14 13 12 13 13 13 13 13 13 14 14 14 14 14 15 15 15 15 15 15 15 15 16
11 13 16 16 16 16 16 15 15 14 14 13 13 14 15 14 15 15 16 16 16 15 15 15 15 15 15 15 16 16 16 17 17 18 18 19 19 20 21 21 21 21
10 10 11 10 10 12 13 13 14 13 12 11 11 11 12 13 14 14 15 16 16 16 17 17 17 17 17 18 18 18 19 20 20 21 21 22 22 23 24 25 25 26
11 10 8 7 7 10 11 13 14 12 10 11 11 10 10 11 11 12 13 14 14 15 16 17 18 18 19 20 21 22 22 23 24 24 25 25 26 26 27 27 28 28
8 7 6 5 5 7 7 9 10 7 6 8 10 9 8 8 9 10 12 13 13 15 16 17 18 19 20 21 22 23 24 24 25 27 27 28 29 29 30 30 30 31
5 3 1 1 2 3 3 4 6 5 4 5 8 8 7 7 7 7 9 10 12 14 16 17 18 18 18 19 21 22 23 24 25 26 27 28 29 30 31 32 32 32

ECMWFNIL_850_spd_039.txt.gz
Wind_Speed
17 16 13 13 14 13 13 14 14 14 13 13 12 11 10 10 9 9 8 9 9 9 9 8 9 9 10 9 10 10 11 11 11 11 11 12 12 14 14 14 13 13
18 16 13 14 15 14 13 13 13 13 13 13 12 11 10 10 9 9 9 8 9 10 10 10 10 10 9 8 8 9 11 11 10 9 9 10 11 12 13 14 13 13
19 16 14 13 13 14 14 13 13 12 12 12 12 10 9 9 9 10 10 9 9 9 11 11 11 11 10 8 8 9 10 10 9 8 8 9 9 9 11 12 13 13
18 16 14 12 12 12 13 13 13 12 12 12 11 9 8 8 9 10 11 10 8 9 10 11 11 11 11 9 9 9 9 10 9 8 8 8 8 8 9 10 12 13
17 16 15 13 12 12 12 13 13 12 12 11 11 9 7 8 9 10 10 9 8 8 8 9 10 11 11 10 10 10 10 10 9 8 8 8 8 8 8 9 10 12
17 16 15 13 12 12 12 12 12 12 11 11 10 8 7 7 9 9 8 8 8 7 7 8 8 10 12 12 11 10 10 9 8 7 7 7 6 7 7 8 9 10
17 16 15 14 13 12 12 12 12 11 10 10 9 7 6 7 8 8 7 7 8 7 6 7 8 9 11 11 10 9 9 8 8 7 7 7 6 6 6 7 8 9
18 17 15 15 14 13 12 13 12 10 10 9 8 7 6 6 6 7 6 6 6 7 6 7 8 9 10 10 9 9 8 8 8 8 8 8 8 8 8 8 8 8
19 17 16 15 15 13 13 14 12 11 10 9 8 6 5 5 5 5 5 5 5 6 6 7 9 10 10 9 9 9 9 9 10 10 10 9 10 10 10 9 8 7
19 18 17 16 14 13 14 14 13 11 10 9 7 5 4 5 4 4 4 4 4 5 6 8 10 10 10 10 10 10 10 10 11 12 11 11 11 11 10 9 8 7
22 20 18 16 14 14 14 14 13 11 9 8 6 4 4 4 3 3 3 3 4 5 6 8 10 9 9 9 9 10 11 11 12 12 12 11 11 10 9 8 7 7
24 22 19 17 16 15 14 13 12 10 9 8 6 4 4 4 3 3 3 4 5 6 7 8 9 9 8 9 9 9 10 11 12 12 12 11 10 9 9 8 8 8
26 24 22 20 18 16 15 13 11 10 9 8 7 5 5 4 3 3 4 4 5 7 8 9 9 9 8 8 8 9 9 10 11 12 13 13 12 11 10 10 10 10
24 25 24 22 20 17 14 12 11 10 10 8 7 6 5 5 4 4 5 6 6 6 6 7 8 8 8 8 8 9 9 10 10 11 12 14 14 13 12 11 10 10
18 19 20 20 19 18 14 12 11 10 9 8 7 7 6 5 5 6 7 8 7 6 5 4 5 7 7 8 8 8 9 10 10 10 11 13 14 13 11 10 8 8
18 18 19 17 16 17 14 11 12 11 9 8 8 8 7 6 6 8 9 8 6 5 5 4 5 6 7 8 8 8 8 8 9 9 9 11 13 12 11 9 8 8
20 21 20 17 15 16 14 12 12 11 10 9 9 9 8 8 8 9 10 9 7 7 7 6 6 6 7 8 8 8 8 8 8 7 7 9 10 10 10 10 9 9
22 20 19 17 16 16 15 13 12 11 10 9 9 10 9 9 10 11 11 9 8 8 8 8 7 7 7 8 8 8 9 9 9 8 8 8 9 9 9 9 9 9
19 18 16 16 15 14 14 13 12 10 9 9 10 10 10 11 12 13 12 11 10 9 9 9 9 9 8 8 8 8 8 9 9 9 9 10 10 11 11 11 11 10
15 15 15 16 15 14 15 15 13 11 9 10 11 12 12 12 13 13 12 11 11 10 11 11 11 10 10 9 9 9 9 9 9 9 10 10 11 11 12 12 12 13
12 12 13 13 13 13 13 14 14 12 10 10 11 12 11 11 12 11 11 11 11 10 11 11 12 12 11 11 11 10 10 10 10 10 10 10 11 11 12 12 13 13
10 10 10 11 11 10 10 11 12 12 11 10 10 10 10 9 9 9 9 10 10 10 11 11 12 12 12 12 12 11 11 11 11 11 11 11 12 12 12 13 13 14
11 9 9 9 9 8 9 9 9 9 9 9 9 10 10 9 8 7 8 8 9 10 11 11 12 12 12 13 13 13 13 13 13 13 13 14 14 14 15 15 15 16
12 10 9 9 8 7 7 7 7 7 8 8 8 9 9 9 8 7 7 7 7 8 9 10 11 12 12 13 14 14 15 15 16 17 17 17 17 18 18 18 19 19
12 10 9 8 7 5 4 4 5 6 6 7 7 7 7 8 8 7 6 7 8 8 9 10 10 11 12 13 14 15 16 17 18 19 19 20 20 20 20 20 21 21
9 9 8 8 7 5 4 3 3 5 7 8 8 7 7 7 6 4 5 6 7 8 9 9 10 11 12 13 14 15 17 17 18 18 19 19 19 19 20 19 19 20

ECMWFNIL_850_spd_042.txt.gz
Wind_Speed
24 22 19 17 17 18 18 17 16 14 14 13 12 12 12 11 11 11 11 11 11 11 11 10 10 10 11 11 12 12 12 13 14 13 14 13 13 12 11 12 11 11
24 22 19 18 18 19 19 18 16 14 14 14 14 14 15 14 13 13 12 12 12 11 11 10 10 10 10 10 12 12 11 11 12 12 12 12 12 12 12 13 13 12
24 22 20 19 20 20 20 19 18 17 16 16 16 16 16 15 14 13 12 12 12 11 10 10 10 11 10 10 11 11 11 11 11 11 11 11 11 11 11 13 13 13
24 22 20 20 21 22 22 22 22 21 20 18 17 17 16 15 14 13 13 12 11 11 10 10 10 11 11 10 10 11 11 11 11 11 11 11 11 10 11 12 13 14
23 21 20 20 22 23 23 23 22 21 20 18 17 16 15 15 14 13 14 13 12 12 12 11 11 11 11 11 11 11 12 12 12 12 11 11 11 11 11 12 14 15
24 22 21 21 22 24 23 21 21 20 19 17 16 15 15 15 14 13 13 13 12 12 12 12 12 12 12 11 11 11 12 12 12 11 11 11 11 11 11 12 13 15
24 22 22 21 21 22 21 20 20 19 18 17 15 15 16 16 14 13 12 12 11 10 10 12 12 12 13 12 11 12 12 11 11 11 11 11 11 11 11 12 12 12
24 22 21 20 20 20 20 19 20 19 18 17 15 14 15 15 14 14 13 11 11 9 9 10 11 10 12 12 11 12 12 12 12 12 11 11 12 12 11 12 12 12
22 21 20 20 20 20 20 20 19 19 18 16 14 13 14 14 13 13 13 11 11 9 8 10 10 11 12 12 10 11 12 12 12 12 11 11 11 10 10 11 13 12
22 21 21 20 19 19 20 20 20 19 18 16 14 13 13 13 12 12 11 11 11 10 9 9 10 11 12 11 10 10 10 12 12 11 12 12 10 10 9 9 10 11
20 20 20 20 19 18 19 20 19 19 18 16 14 13 13 12 12 11 9 9 10 10 9 9 9 10 10 10 10 10 10 10 11 11 12 12 12 11 10 9 9 9
17 18 19 19 18 17 19 20 20 19 18 16 14 13 12 11 11 10 9 9 9 9 9 9 9 9 9 9 9 10 11 11 11 12 12 12 12 11 10 10 9 9
19 19 19 20 19 18 20 21 20 19 18 16 15 13 12 11 10 10 10 9 9 9 9 9 9 9 8 9 9 9 10 11 12 13 13 13 13 11 11 12 10 10
19 19 19 20 20 21 22 22 20 19 18 17 15 13 12 11 10 10 9 9 10 9 9 9 9 8 7 8 8 8 9 10 12 12 12 14 15 13 13 14 13 13
21 23 22 21 20 22 23 21 20 20 19 17 15 13 12 12 10 9 9 9 9 9 9 9 9 9 9 10 8 7 7 8 10 11 10 12 13 13 14 15 13 14
23 25 26 24 23 23 23 22 23 22 20 17 15 13 13 13 11 10 9 9 8 9 9 10 11 12 13 12 11 10 8 7 8 9 9 10 11 11 13 13 12 13
24 26 27 26 25 24 22 23 24 22 20 17 15 14 14 14 13 11 11 10 9 9 9 9 9 10 11 12 12 11 9 7 7 7 7 9 10 10 11 11 12 11
25 27 28 27 26 24 23 22 22 20 18 16 14 14 15 16 15 13 13 13 12 10 9 8 7 8 9 10 11 10 9 8 6 6 6 7 8 9 9 10 11 10
24 25 26 26 24 23 22 21 20 18 16 15 15 15 16 16 16 15 15 14 13 11 10 9 8 8 7 8 8 8 8 8 6 6 6 6 7 8 9 9 10 10
21 22 24 24 23 22 22 21 19 17 16 15 14 13 15 16 16 16 15 14 12 11 10 10 9 8 8 8 7 7 7 7 6 6 6 5 6 8 10 10 10 10
19 20 20 21 21 19 18 17 16 15 13 12 10 10 13 15 16 16 15 14 11 10 10 10 9 9 8 8 7 7 6 6 6 6 6 6 7 8 9 10 11 11
18 18 16 15 14 12 12 14 16 16 13 11 10 11 12 14 14 14 14 13 12 10 9 9 9 9 8 8 7 7 6 6 6 6 7 8 8 9 9 11 12 12
16 16 15 13 12 11 12 14 16 14 13 12 12 13 13 13 13 13 12 11 11 10 10 9 8 8 8 8 8 7 7 7 6 6 8 10 10 10 11 12 13 13
15 15 15 14 14 13 14 14 14 13 13 12 12 12 12 11 12 13 12 10 9 8 8 8 8 9 9 9 9 9 9 9 8 8 10 12 11 12 13 13 14 15
13 12 13 13 12 11 12 12 12 12 11 11 10 9 9 9 9 10 10 10 9 8 8 8 9 9 10 10 11 10 10 11 10 10 11 12 11 12 12 12 15 17
12 11 11 11 10 10 10 9 8 8 8 8 8 8 7 8 8 8 8 8 9 10 10 10 11 11 11 11 11 11 10 11 11 11 11 11 11 12 12 12 14 17

ECMWFNIL_850_spd_045.txt.gz
Wind_Speed
24 24 22 20 19 19 19 18 19 21 17 14 14 14 15 15 15 16 15 14 13 12 10 10 10 10 11 12 12 12 13 14 13 13 13 13 12 12 14 16 16 16
27 26 23 22 20 19 19 17 18 19 17 14 13 14 13 12 13 16 16 15 13 12 11 10 10 10 10 11 12 12 12 13 13 12 12 13 13 12 13 13 14 15
28 27 25 23 21 20 20 18 19 19 17 16 15 14 13 11 12 14 15 15 14 13 11 10 10 10 10 10 11 12 11 11 13 12 13 13 12 11 11 12 13 13
29 28 26 24 22 21 21 20 20 19 18 17 15 15 13 11 13 14 14 15 14 13 11 10 11 11 11 10 11 12 10 10 12 12 12 12 11 12 13 13 13 13
29 28 27 26 22 21 22 21 20 18 18 18 16 16 15 15 16 16 15 15 15 13 11 12 13 12 11 11 10 11 10 10 11 11 11 10 9 11 11 11 12 12
28 27 26 24 21 21 22 21 18 17 18 19 19 19 18 17 16 14 15 16 14 12 12 13 13 12 12 11 10 10 10 10 10 11 10 9 9 9 9 10 11 12
28 27 24 22 21 21 21 19 18 18 19 20 18 17 16 15 12 12 13 13 11 10 10 11 11 11 12 12 10 10 10 10 11 11 10 9 10 10 9 10 11 12
28 27 24 22 22 23 22 20 20 20 20 19 16 15 14 13 12 11 11 10 10 9 9 9 10 9 10 11 11 10 10 10 11 11 10 10 10 10 10 10 10 12
28 27 25 24 24 24 23 21 20 19 18 16 15 16 15 13 12 12 11 10 10 9 8 8 9 9 9 10 10 10 10 11 11 11 11 10 10 10 10 10 11 12
27 27 26 26 27 26 23 22 20 19 18 16 15 16 16 14 14 12 12 11 10 8 7 7 8 9 9 9 9 10 10 10 10 10 10 10 9 9 9 10 12 13
28 28 27 28 29 27 24 22 20 19 18 16 15 15 15 15 14 13 12 11 10 8 7 6 7 7 7 7 8 9 8 8 8 8 8 9 8 7 8 9 11 13
31 30 28 28 27 25 23 21 20 19 18 16 14 14 14 14 14 13 11 11 10 9 7 6 6 6 6 6 6 6 6 7 7 7 7 8 8 8 9 8 8 10
32 31 29 27 25 24 22 20 19 19 17 15 15 14 14 14 13 12 11 10 10 9 7 6 6 6 6 6 6 6 7 7 7 7 8 9 10 9 9 8 8 8
31 30 28 25 23 23 22 21 19 18 16 15 15 14 14 13 12 12 11 10 10 10 8 7 7 8 9 9 8 7 7 7 7 7 8 9 10 9 9 9 9 8
30 29 27 26 23 21 21 20 19 18 16 14 14 13 13 12 12 11 10 9 10 9 8 9 11 13 14 13 11 10 9 7 8 8 8 9 10 10 10 10 9 8
28 28 27 26 25 23 23 21 19 19 17 14 14 13 12 12 11 10 10 9 9 9 10 13 16 16 15 15 15 14 12 9 8 8 8 9 10 11 10 10 10 9
28 28 28 27 26 26 27 25 22 20 18 15 14 13 12 13 12 11 10 9 9 10 13 16 17 17 17 17 17 16 15 12 8 7 8 8 10 11 10 10 10 9
29 29 30 30 28 28 29 28 25 23 21 19 17 14 13 12 11 11 10 11 12 13 13 12 14 16 16 17 17 17 16 14 9 6 7 7 7 9 9 9 9 9
29 30 31 31 30 29 29 28 27 25 24 23 20 19 17 14 13 13 12 12 13 12 10 9 10 12 12 13 15 15 15 14 9 6 7 6 6 7 8 8 9 9
26 27 29 29 28 28 28 27 26 25 22 20 19 19 20 19 17 16 13 10 10 11 10 9 9 9 8 9 11 11 12 13 10 7 7 7 6 7 7 8 8 8
21 24 25 25 25 26 26 25 26 24 21 18 17 18 19 18 17 15 11 9 10 12 12 11 10 9 8 8 8 8 8 10 9 7 7 7 6 6 7 7 7 7
19 21 22 22 23 23 23 23 23 22 20 17 16 16 16 15 13 11 11 12 13 13 12 11 11 10 9 8 8 7 7 7 7 6 6 7 7 8 7 6 7 8
18 19 20 20 20 19 19 18 16 14 14 13 13 13 12 12 11 10 12 15 15 14 12 12 11 11 10 9 8 8 8 6 5 6 7 7 8 8 7 8 10 11
18 18 18 18 17 14 13 12 11 11 12 13 13 13 13 14 15 15 15 17 17 15 13 12 12 11 11 10 10 9 10 8 5 4 6 6 6 6 6 8 11 11
16 16 14 13 12 10 10 11 13 14 14 14 13 13 14 15 16 16 16 16 16 14 13 13 12 11 11 11 11 11 11 11 8 4 4 5 5 4 4 6 11 13
14 13 12 11 11 10 9 10 12 13 14 14 14 14 15 16 16 16 16 16 15 13 12 12 11 11 11 11 12 12 12 13 13 11 9 10 9 7 5 4 9 15

ECMWFNIL_850_spd_048.txt.gz
Wind_Speed
28 27 25 24 22 19 16 17 17 16 15 13 12 14 14 14 13 12 12 12 11 11 11 10 11 10 11 12 11 10 9 9 11 14 14 14 14 13 15 15 14 15
29 27 25 25 24 21 19 19 18 17 15 14 13 14 15 15 14 13 13 12 11 11 10 10 10 8 8 10 9 10 11 10 10 12 12 13 13 13 15 16 16 18
31 28 26 27 27 24 22 19 18 18 15 13 13 13 15 16 15 15 15 13 12 12 10 9 9 8 8 8 8 9 10 10 10 11 11 11 12 13 14 15 16 18
32 30 29 29 28 26 24 21 19 18 16 15 15 14 16 17 17 17 17 15 14 12 10 8 7 8 8 7 7 7 8 8 9 10 11 11 11 12 14 14 15 16
33 31 32 30 27 26 25 23 20 18 18 18 17 15 15 15 16 17 18 17 16 13 10 8 7 8 8 8 7 7 7 7 8 9 9 10 11 11 13 13 13 15
33 35 35 30 27 27 27 24 21 19 21 20 16 15 13 12 13 14 17 17 15 12 11 9 8 7 7 8 7 7 7 6 6 8 9 10 10 10 11 11 11 13
35 37 36 31 28 28 27 24 21 20 21 18 15 15 13 13 12 10 13 14 13 12 11 10 10 9 8 8 7 8 7 6 7 8 10 9 9 10 10 11 11 11
36 37 34 32 30 29 27 24 22 20 19 18 16 16 14 12 10 9 11 12 11 10 8 8 8 8 7 7 7 7 6 7 8 8 9 9 9 10 10 11 11 11
34 34 34 32 31 30 28 24 21 20 20 19 16 15 13 11 10 10 11 11 9 8 6 5 5 4 4 5 6 6 6 8 9 7 9 10 9 9 9 10 10 11
31 32 33 32 31 30 27 24 22 21 20 18 15 14 13 13 12 10 11 10 9 8 6 5 5 5 5 5 5 6 7 7 8 7 9 10 8 8 8 9 9 11
31 33 33 32 31 29 27 26 24 22 20 17 15 14 14 14 13 12 12 11 9 8 6 5 6 6 7 6 6 7 7 6 6 7 9 10 8 7 7 7 8 10
33 34 34 33 31 29 28 27 25 22 20 18 16 15 15 15 14 13 12 10 9 8 6 4 4 4 4 4 5 5 6 7 7 7 6 8 7 5 6 6 4 6
34 35 33 31 29 29 28 25 23 23 20 18 16 16 16 15 13 12 11 9 9 8 6 4 4 4 4 4 3 4 5 6 6 6 5 7 8 6 7 7 3 3
35 34 32 31 29 28 28 24 23 23 20 19 19 18 16 14 11 11 11 10 10 8 7 8 10 9 8 7 7 6 6 6 8 8 6 8 11 8 7 7 3 4
36 34 32 32 30 28 27 25 23 23 23 22 21 20 18 15 13 12 12 12 12 9 8 10 12 12 10 10 10 8 7 7 9 10 7 8 12 9 7 8 7 6
36 35 33 32 30 27 26 26 25 25 24 22 20 19 18 16 14 13 12 12 12 12 12 10 12 13 12 11 11 10 10 9 9 10 9 9 10 8 8 11 8 5
35 33 33 31 30 29 28 26 25 24 23 22 20 19 17 17 16 14 12 12 13 15 15 12 13 13 12 12 12 12 12 10 8 9 9 9 10 8 8 11 9 7
33 33 32 30 28 28 27 26 25 24 22 20 20 19 18 17 17 15 15 17 17 16 15 14 14 14 14 14 14 14 14 11 8 8 8 9 9 8 8 9 9 9
35 34 33 31 29 28 29 29 28 26 24 23 22 21 21 20 19 18 19 19 18 15 12 11 12 13 15 15 16 17 16 13 11 8 7 8 8 7 7 7 8 9
34 35 36 36 35 34 34 33 30 28 28 28 26 24 24 23 22 22 20 18 16 13 9 8 7 9 12 13 15 18 18 16 12 7 5 7 6 7 8 7 7 10
27 32 36 37 36 35 34 32 30 29 29 29 29 27 25 24 23 21 18 14 12 11 8 6 5 5 7 8 11 14 17 18 14 7 7 8 6 7 9 8 8 10
21 25 29 30 30 31 30 28 28 28 28 28 28 27 25 24 23 20 15 11 9 9 8 6 5 6 6 6 7 8 10 14 14 9 8 8 7 6 8 7 8 10
20 22 23 23 25 27 28 28 28 27 27 27 26 26 24 23 21 18 12 8 7 6 6 5 6 7 7 7 8 8 9 11 11 8 7 8 8 8 8 8 9 11
18 20 23 23 24 25 26 27 25 23 23 22 21 21 21 20 18 14 9 6 5 5 6 7 8 9 10 10 10 10 11 11 10 7 8 9 8 9 10 10 10 11
17 18 20 21 22 22 22 22 19 16 15 14 15 17 17 15 12 11 10 9 10 12 12 12 12 11 11 12 13 13 14 13 11 9 10 9 6 5 9 10 9 10
16 14 14 14 15 14 14 14 14 13 12 11 13 13 12 11 10 11 11 10 11 13 13 13 14 13 13 14 15 15 15 15 14 12 11 12 10 6 5 7 8 9

ECMWFNIL_850_spd_051.txt.gz
Wind_Speed
29 31 31 29 27 24 24 25 25 24 24 22 21 20 18 18 18 17 17 17 17 16 16 17 18 18 19 18 16 15 15 15 17 17 17 16 15 16 17 17 16 15
30 31 30 28 24 21 22 24 24 23 23 22 21 19 17 17 16 16 17 17 16 15 15 15 16 16 18 18 16 15 15 15 15 16 17 16 16 17 17 17 16 15
30 31 30 27 24 22 22 23 24 24 23 21 19 18 17 16 15 16 17 16 16 15 15 15 15 15 16 17 16 15 15 14 13 14 15 16 17 17 17 17 17 16
28 30 28 26 24 23 23 24 26 25 22 19 17 15 15 15 15 15 15 15 15 15 14 14 14 14 14 15 14 14 14 13 13 14 15 16 17 17 16 17 17 17
26 27 27 26 25 24 24 25 26 24 20 18 16 15 14 14 15 15 14 14 14 14 13 13 14 14 13 13 13 13 14 13 13 14 14 16 17 16 16 16 16 16
25 26 27 27 26 25 24 26 26 23 20 18 17 16 14 14 15 15 15 14 14 13 13 13 14 14 14 13 13 13 13 13 12 13 13 14 15 15 16 16 15 15
26 28 29 27 26 26 26 26 26 23 20 19 18 16 14 14 15 15 17 17 15 13 13 13 13 14 14 13 13 13 13 13 11 12 12 12 14 15 16 16 15 14
27 29 29 26 26 28 26 24 23 22 21 19 17 16 15 15 14 15 18 18 16 14 13 12 12 12 12 12 13 14 14 13 12 11 12 12 13 13 14 15 14 13
28 28 28 27 28 29 25 22 23 22 21 20 19 18 16 14 13 15 17 17 16 14 13 11 10 9 10 11 13 14 13 13 12 11 12 13 12 11 12 13 12 13
28 28 28 29 29 28 25 23 23 22 20 20 20 18 15 13 14 15 17 17 15 13 11 9 8 8 8 9 12 13 12 12 12 12 13 13 12 10 11 11 11 12
29 28 30 31 29 27 25 24 23 21 21 21 19 16 14 15 14 15 18 16 14 14 12 9 9 9 7 7 10 12 11 11 12 13 13 13 10 10 11 11 11 11
31 31 33 32 29 27 26 25 23 21 21 20 17 15 17 16 14 16 17 16 15 14 11 10 11 9 7 7 8 10 11 11 12 12 13 13 11 10 10 9 8 9
32 35 36 32 29 27 26 25 23 22 21 18 15 17 19 17 16 18 17 16 16 15 11 12 12 8 7 7 7 9 11 11 12 11 11 12 12 11 11 9 6 5
33 36 37 33 29 28 27 26 24 22 20 18 16 19 20 18 18 18 17 16 17 16 13 12 13 11 10 9 8 8 9 10 10 10 10 13 12 11 12 11 8 5
33 35 36 33 31 30 29 28 26 23 21 20 19 20 19 17 17 18 17 17 17 16 13 12 14 13 12 11 10 9 9 10 11 9 9 12 10 9 13 13 10 8
33 34 35 35 34 33 32 29 26 24 23 22 21 21 18 17 18 17 17 18 17 15 13 13 14 14 13 13 11 9 9 11 11 9 8 9 7 8 12 14 11 9
35 34 35 36 36 35 34 31 27 25 26 24 22 21 19 19 19 18 18 18 17 15 13 13 13 13 14 14 12 10 11 11 12 12 11 10 8 8 10 11 11 9
37 36 36 37 37 37 35 31 29 29 28 26 24 23 22 21 21 20 19 19 18 16 13 12 12 12 13 14 12 11 12 13 12 12 12 11 10 8 7 7 7 7
38 40 39 38 38 37 35 33 32 32 30 27 26 25 23 21 21 21 20 20 19 16 13 11 10 10 11 13 14 12 12 12 13 13 13 11 9 8 8 8 7 7
38 40 38 38 39 38 36 36 35 33 30 27 26 24 22 22 22 21 19 19 18 15 12 10 9 9 9 10 13 14 13 13 13 13 12 10 9 9 9 8 9 10
34 37 36 35 38 38 37 37 35 33 31 29 27 25 23 24 24 22 19 18 17 15 12 9 7 6 7 9 12 14 15 15 15 12 10 9 11 11 9 7 8 10
28 30 32 33 36 37 36 35 34 32 32 31 30 28 26 27 26 23 20 18 16 14 11 8 7 6 5 6 9 12 16 17 14 10 8 9 10 11 10 9 8 9
28 28 29 30 32 33 34 34 32 31 30 30 30 29 28 28 26 22 20 18 15 13 11 9 8 8 7 6 7 8 12 15 14 12 9 7 8 10 11 11 10 9
22 24 26 29 32 31 31 32 29 28 28 28 30 30 29 27 25 21 18 14 11 10 9 7 6 7 7 7 7 8 8 10 11 13 11 7 7 10 10 10 10 10
22 21 22 25 30 30 29 30 29 27 27 27 26 27 26 23 20 18 14 9 7 7 6 4 2 3 3 5 7 8 9 9 9 12 13 10 9 10 11 12 11 11
22 21 23 24 26 26 23 23 23 21 21 20 19 20 20 17 14 13 10 6 4 4 4 4 5 6 6 6 7 9 11 10 8 9 11 12 12 12 13 14 13 12

ECMWFNIL_850_spd_054.txt.gz
Wind_Speed
17 16 17 19 22 25 25 25 26 25 24 22 21 21 20 20 19 18 19 19 19 20 21 20 20 22 23 21 19 19 18 17 17 17 17 17 17 18 19 20 20 19
18 18 19 21 23 24 26 27 27 27 25 24 23 22 21 20 18 17 19 19 19 20 20 19 20 22 23 21 19 19 18 17 17 17 17 17 17 18 19 20 19 18
17 18 19 21 23 24 27 29 30 28 25 25 24 22 21 19 18 18 18 19 19 19 18 19 20 21 21 20 19 19 18 18 18 18 17 17 18 19 19 19 18 18
17 18 19 20 21 23 26 27 27 26 24 23 22 20 19 18 17 18 18 18 18 18 18 18 19 20 20 19 19 19 19 18 18 18 18 19 19 19 18 18 19 18
17 19 19 20 21 23 25 24 23 24 24 23 22 20 18 17 17 19 19 19 18 18 18 19 19 19 19 19 19 18 18 17 17 18 19 20 20 19 18 18 19 20
19 19 20 21 22 23 23 22 23 25 23 22 22 20 18 18 19 20 20 20 19 18 18 18 19 18 18 19 19 18 17 17 17 18 18 19 19 19 18 19 19 20
19 21 21 21 23 25 24 24 24 24 24 23 22 20 19 19 20 21 21 21 19 18 17 17 17 17 17 18 19 19 17 17 18 18 18 18 19 20 20 20 19 19
20 21 20 21 24 26 27 27 25 24 25 25 22 21 20 20 19 21 22 21 20 19 18 18 18 17 18 18 19 18 18 18 18 17 18 18 19 20 21 20 19 18
22 22 22 24 26 28 27 27 25 25 27 25 22 21 21 19 18 19 21 21 20 19 19 19 18 18 18 18 18 18 18 19 18 17 17 18 19 20 20 20 19 19
24 25 25 27 29 29 28 26 26 28 29 26 24 24 21 19 18 18 20 21 19 19 19 19 17 17 17 18 18 18 18 18 17 16 17 18 18 19 19 18 19 19
29 28 27 29 31 31 29 27 28 31 31 29 28 27 24 20 18 18 21 22 20 19 18 17 16 16 16 17 17 18 18 18 17 16 17 17 17 17 17 17 18 18
30 29 29 31 33 33 30 29 30 32 32 30 30 29 25 20 19 20 23 23 20 19 17 15 15 15 14 14 16 17 18 17 17 16 16 16 16 16 15 15 16 17
29 29 30 33 34 33 31 31 31 33 33 31 29 27 24 20 19 20 23 23 21 19 17 15 15 15 12 12 13 16 17 17 17 16 15 16 16 15 14 13 13 14
29 29 31 33 35 32 31 32 33 33 33 31 29 26 22 21 22 23 24 24 22 21 19 17 16 15 13 11 12 14 15 16 17 16 16 17 17 15 14 13 12 10
28 29 30 32 33 31 30 33 34 31 30 29 26 24 22 23 25 26 25 25 24 22 20 19 17 16 14 13 13 14 15 15 16 16 16 18 18 16 15 15 12 9
25 27 29 30 30 31 31 32 33 31 30 27 24 23 24 25 26 26 25 25 25 23 21 20 18 16 15 14 13 14 15 15 16 15 16 17 18 17 17 17 14 10
23 25 30 30 30 32 32 31 33 31 29 26 25 27 28 27 26 26 26 24 24 24 22 21 19 18 17 16 14 14 15 16 15 14 14 15 16 17 17 17 16 13
23 25 30 32 32 34 34 34 33 30 28 29 30 30 30 28 27 27 26 24 23 23 22 20 20 20 19 18 17 16 16 16 14 13 13 13 13 14 16 18 17 15
23 26 31 35 35 35 35 34 32 30 30 31 32 32 31 30 29 28 26 24 22 22 20 19 21 22 21 20 20 19 18 18 16 14 13 13 12 12 15 18 18 15
21 25 31 36 36 36 35 34 34 33 32 32 33 34 33 31 30 29 26 24 23 22 21 21 22 22 21 19 20 20 20 20 19 17 15 13 13 13 13 14 15 13
19 22 29 36 37 37 37 38 38 36 34 35 36 35 33 31 30 29 27 26 24 23 22 22 21 21 20 18 18 19 20 20 20 20 18 15 13 13 13 13 12 12
14 17 26 36 39 39 40 40 39 36 35 37 38 34 32 32 31 29 27 26 24 23 22 21 19 19 19 19 18 19 20 19 19 20 20 18 14 13 13 13 12 13
5 10 20 33 38 41 43 41 38 36 35 37 38 35 33 32 31 29 27 25 23 21 19 19 17 16 16 18 20 21 19 18 17 18 19 18 16 15 14 13 12 13
18 14 15 28 35 38 42 40 38 38 37 36 36 36 35 34 32 30 28 25 23 21 18 17 17 15 14 14 17 19 20 18 16 15 16 16 15 16 15 14 13 12
26 25 19 23 31 34 38 39 39 38 36 35 35 35 35 34 33 31 29 25 23 20 18 16 16 16 14 13 12 13 15 16 15 14 14 14 14 15 15 14 13 13
22 26 26 23 26 30 33 33 35 36 35 34 32 31 32 31 30 29 28 25 22 20 18 16 14 14 14 14 13 12 12 14 14 14 14 15 15 14 14 13 13 12

ECMWFNIL_850_spd_057.txt.gz
Wind_Speed
24 23 21 20 20 21 22 23 23 22 24 26 27 27 26 24 23 22 21 21 19 18 20 21 22 23 23 21 21 21 21 21 21 21 22 21 20 19 19 20 21 21
25 24 22 20 20 22 21 20 21 21 21 25 27 26 25 24 22 20 20 21 20 20 21 22 23 23 23 22 22 22 22 21 21 22 22 22 21 20 20 20 21 21
25 24 22 21 20 21 20 18 18 18 19 23 27 25 23 21 19 19 19 21 22 22 22 23 24 23 23 23 23 23 22 22 22 21 22 22 21 19 19 19 20 20
24 25 22 21 20 19 19 18 17 17 18 23 26 24 21 19 18 19 20 21 22 23 23 23 23 23 23 24 24 23 23 22 21 21 21 20 19 18 18 18 19 20
21 23 21 20 19 18 19 19 17 17 19 23 24 22 20 20 19 19 19 20 22 23 23 22 22 22 22 24 24 23 23 22 21 21 20 18 17 18 18 18 19 19
19 21 20 20 19 18 19 20 18 18 21 23 23 22 21 21 22 20 20 21 21 22 22 22 22 23 23 23 24 23 23 22 22 22 20 19 18 19 19 19 19 19
20 21 21 21 20 20 20 19 19 20 23 24 24 23 22 22 23 22 22 23 22 21 21 21 22 22 22 23 24 24 24 22 21 22 21 21 20 19 19 20 19 19
22 23 24 24 23 21 20 20 20 21 24 26 27 25 24 24 23 22 24 24 23 22 21 21 21 21 21 23 24 23 23 21 20 21 21 21 21 20 21 21 21 20
24 24 25 27 25 23 22 21 22 23 25 27 28 27 25 25 24 24 25 24 22 22 22 21 21 21 21 21 22 22 22 21 20 21 21 20 20 20 21 21 20 19
23 22 22 26 27 25 22 22 23 23 24 25 27 27 26 25 24 24 24 23 23 22 22 22 21 21 20 19 19 20 21 20 21 21 20 19 19 20 20 20 20 19
19 19 19 22 25 24 21 22 23 23 24 25 26 28 28 25 23 24 24 24 24 23 22 22 21 20 19 19 18 18 19 19 20 20 19 18 18 19 19 18 19 19
18 17 17 18 21 21 19 19 23 25 26 26 27 28 27 24 25 26 25 25 24 23 22 21 21 20 19 18 18 18 18 18 18 18 17 17 18 18 17 17 18 19
18 18 17 18 20 20 17 16 20 24 26 26 27 28 26 25 26 24 22 23 23 22 22 21 20 20 19 18 18 19 19 18 18 18 17 17 17 17 17 17 18 18
17 17 16 17 19 19 17 15 17 23 25 26 27 27 26 27 25 19 17 20 22 22 22 21 20 20 19 18 18 18 19 18 18 19 18 17 17 17 18 17 17 16
17 17 16 16 17 19 18 16 17 22 25 26 28 28 27 26 23 19 19 20 22 22 22 21 20 20 19 18 17 18 18 19 19 19 18 17 17 18 18 17 16 15
17 16 16 16 17 19 20 18 19 23 26 27 29 29 27 25 23 22 21 22 24 24 23 21 20 20 19 16 16 17 17 18 19 19 18 17 18 19 18 16 16 15
19 18 16 15 16 18 21 20 20 25 28 29 30 30 28 25 24 24 24 24 26 26 24 22 21 20 18 16 15 16 17 18 18 18 18 17 17 18 17 16 16 15
20 20 18 16 17 18 21 22 22 27 30 30 31 31 29 27 26 26 26 26 28 28 26 24 22 20 18 16 16 16 17 17 17 17 17 17 17 17 17 17 18 16
21 19 18 18 18 18 20 23 25 28 31 31 31 31 30 30 29 28 27 28 30 29 28 26 24 21 19 18 17 17 17 17 17 16 16 16 17 17 18 18 18 17
24 19 18 18 18 17 19 24 27 28 30 32 32 32 32 32 31 30 30 31 31 30 28 27 25 23 21 19 19 18 18 18 18 17 16 16 16 16 18 19 19 17
28 22 18 17 17 17 18 23 28 28 29 31 33 34 33 34 33 33 33 32 30 29 29 27 26 25 23 21 20 20 19 18 19 18 16 16 16 15 16 18 18 18
31 24 19 17 17 15 14 21 27 28 28 32 35 35 34 36 36 36 35 33 31 29 29 28 27 26 25 23 22 22 21 20 20 19 17 17 17 16 15 16 17 18
34 27 19 15 15 13 14 21 28 30 29 32 37 36 35 36 36 35 34 32 31 30 29 28 28 26 25 24 24 23 23 22 21 20 19 18 18 17 16 16 17 18
35 33 24 14 9 9 15 19 25 29 30 33 37 39 37 36 36 35 35 33 31 30 29 29 29 27 25 24 24 24 24 23 23 22 21 20 19 18 18 18 19 18
29 33 32 22 9 3 10 14 19 27 32 35 38 39 39 39 39 38 36 34 33 32 31 30 29 27 25 24 23 22 22 22 23 24 23 22 20 19 19 19 19 19
23 28 32 30 21 11 7 9 13 21 31 36 38 40 41 40 39 38 38 35 33 32 30 29 27 25 22 21 22 21 20 19 20 21 22 22 21 20 19 19 19 18

ECMWFNIL_850_spd_063.txt.gz
Wind_Speed
19 18 18 19 19 21 22 22 21 21 23 25 25 25 25 23 20 19 22 26 27 29 29 25 24 25 26 28 27 25 24 25 25 27 27 26 25 24 24 23 21 19
19 19 18 19 20 21 21 21 19 19 21 23 24 24 24 23 20 17 19 23 25 28 31 29 27 27 26 25 26 25 26 27 26 26 26 26 25 25 25 23 22 21
19 20 20 20 21 22 23 22 21 20 20 20 22 23 22 20 19 17 17 20 22 26 31 31 28 27 26 25 25 25 27 28 27 27 27 27 26 26 25 24 23 23
17 17 19 19 19 20 21 21 21 21 19 18 18 19 20 19 19 18 16 18 19 23 28 28 26 26 26 25 25 25 27 28 27 27 27 28 27 26 26 25 24 24
16 15 16 17 17 17 17 17 17 18 18 16 15 16 18 18 19 19 16 18 21 22 25 25 24 25 25 25 26 26 27 28 26 26 27 27 27 27 27 26 25 24
15 13 12 15 16 16 15 15 15 15 14 13 14 16 18 17 18 19 18 21 25 24 23 22 22 23 23 24 26 27 27 27 26 27 27 28 28 28 27 25 25 24
14 13 11 10 12 13 14 15 15 15 14 13 13 15 17 16 17 19 18 20 25 24 22 22 22 21 22 24 25 25 26 26 26 27 27 28 28 26 26 25 25 24
13 13 13 10 9 9 11 13 14 15 15 15 15 16 15 15 16 17 18 19 22 22 22 23 22 21 22 24 25 24 24 24 27 28 28 27 25 23 24 24 24 24
14 13 14 13 11 9 8 10 12 14 14 15 16 17 16 14 14 16 18 20 20 21 21 21 21 21 23 23 23 23 22 24 27 28 27 25 23 22 22 22 22 23
15 14 14 14 14 13 10 10 11 13 14 14 15 17 16 14 13 16 20 21 22 22 21 21 20 21 21 22 23 23 23 24 26 26 25 23 22 21 21 21 22 23
17 16 14 14 15 15 14 13 13 13 14 14 14 16 16 15 15 19 23 24 23 23 22 21 20 19 20 21 22 24 24 24 24 23 24 24 22 22 22 22 22 23
19 17 16 14 14 14 14 15 16 16 14 13 14 15 16 17 18 21 25 25 24 24 24 22 21 20 20 20 22 22 21 21 21 21 22 22 22 22 23 23 23 23
21 19 17 15 14 14 13 14 15 17 16 14 14 15 16 18 20 21 25 27 26 25 24 22 21 21 20 19 20 19 17 18 19 19 20 21 22 23 23 22 23 24
23 22 20 17 14 13 14 14 14 16 17 16 16 16 17 19 20 21 23 26 27 25 23 21 21 22 20 19 18 18 17 18 18 19 20 20 21 22 22 22 23 24
25 25 24 21 16 13 14 16 16 16 16 17 17 18 18 18 19 21 22 25 26 24 23 22 23 23 22 20 19 19 19 18 18 18 19 20 21 21 21 21 21 22
26 27 28 26 20 15 13 17 19 18 16 16 17 18 18 18 19 21 22 23 26 26 25 24 24 23 22 21 20 20 19 19 18 17 18 19 19 20 20 20 21 21
29 29 31 30 25 19 15 15 19 20 18 16 16 17 18 18 20 22 22 23 25 26 25 24 24 23 23 22 21 20 20 19 18 17 17 18 18 18 19 19 20 19
33 32 33 33 29 24 19 17 16 18 18 17 16 17 17 18 20 22 22 22 24 26 25 24 23 23 24 23 22 22 22 20 18 18 18 18 18 18 19 19 19 19
35 35 35 35 33 28 22 18 16 15 16 17 16 15 16 18 20 21 23 24 25 26 26 24 23 23 24 23 22 22 22 20 19 19 19 18 18 19 19 20 20 20
36 36 38 38 37 33 26 19 16 13 13 15 17 16 16 18 19 20 23 25 25 25 25 24 23 23 23 22 22 22 21 20 20 21 20 19 19 20 21 20 20 21
36 37 38 40 41 38 32 24 18 15 14 14 16 18 17 18 19 20 22 25 25 25 25 25 24 22 22 22 22 22 22 22 22 22 22 22 22 23 22 22 21 21
36 36 37 40 42 42 38 32 25 20 18 16 15 17 17 17 18 19 22 25 26 26 26 26 26 24 24 24 23 22 23 23 23 23 23 24 24 23 23 22 21 22
35 35 36 37 40 41 40 37 32 27 23 22 19 15 15 16 18 20 22 25 27 27 26 27 29 28 26 24 24 24 24 25 24 23 23 24 24 23 23 22 22 22
36 34 33 34 36 38 37 36 34 31 28 25 23 20 15 13 14 16 18 21 24 25 26 27 28 27 25 25 25 25 25 26 25 24 23 23 24 23 22 22 22 22
35 34 32 31 31 32 33 33 32 30 28 26 24 21 18 14 13 11 9 10 17 22 24 27 28 27 27 28 29 27 27 27 26 25 25 24 24 23 22 21 21 21
32 33 33 31 29 27 27 28 29 29 27 26 24 21 17 14 11 10 7 4 3 13 20 23 26 28 29 30 30 30 29 28 26 25 25 25 25 24 22 21 20 20

ECMWFNIL_850_spd_069.txt.gz
Wind_Speed
8 8 10 11 12 13 13 15 16 16 16 15 15 17 19 20 20 22 23 24 23 23 22 21 21 21 22 24 26 27 29 29 28 30 30 31 32 32 31 31 31 31
8 9 10 11 12 13 12 12 15 16 16 14 14 16 18 21 21 22 23 23 23 23 22 21 21 23 23 25 25 26 27 27 28 29 29 30 32 32 31 30 30 30
10 10 10 10 10 13 14 13 13 14 15 14 15 16 18 20 21 22 23 23 22 23 23 21 22 24 25 25 26 27 27 26 27 29 29 31 32 31 30 28 28 29
12 11 10 9 9 10 12 12 12 13 14 15 16 17 18 19 20 21 22 22 22 22 22 21 22 24 25 25 26 28 28 27 27 28 30 31 32 30 29 28 28 29
13 12 11 10 9 9 9 11 12 13 14 15 17 18 19 20 21 21 21 21 21 20 19 20 21 22 23 25 26 27 29 29 28 28 30 31 31 29 28 28 28 29
13 13 13 11 11 10 10 11 13 14 15 15 16 17 18 20 20 19 21 21 20 18 18 19 20 21 23 24 26 27 29 31 30 29 31 32 31 29 28 28 26 28
13 13 13 13 12 12 12 13 15 16 17 17 17 16 16 19 20 20 21 21 20 19 19 20 21 22 22 23 25 27 29 30 30 31 32 33 31 29 29 28 27 29
14 14 13 14 14 13 13 14 17 17 18 19 20 19 18 18 20 21 20 20 20 20 19 20 21 21 21 22 25 27 28 29 29 30 30 29 27 27 28 29 29 29
15 15 14 15 14 14 14 15 16 17 19 21 22 22 20 18 18 21 21 20 20 20 19 19 20 21 22 23 23 25 27 29 29 29 27 26 26 26 27 29 29 30
16 15 15 16 16 14 16 17 16 16 18 21 23 24 24 21 17 19 22 22 22 21 20 19 20 21 22 22 23 23 24 27 28 27 26 25 25 24 27 29 30 30
17 16 17 20 19 17 16 17 17 17 17 18 20 22 25 25 21 19 21 23 22 22 21 19 18 20 21 22 23 22 23 25 25 25 25 24 23 24 27 28 27 29
18 18 19 21 21 19 18 17 17 18 18 17 17 18 21 23 23 21 20 22 22 21 21 19 19 20 21 23 23 22 24 25 25 26 26 24 23 25 27 26 25 27
19 18 20 21 21 21 20 18 18 19 20 19 18 18 18 19 21 22 20 20 21 21 21 19 20 21 21 22 22 22 24 25 25 27 27 26 26 26 27 27 26 27
19 19 19 20 21 21 20 20 20 20 20 20 20 19 18 18 19 20 20 20 20 21 22 21 20 22 22 22 21 22 25 27 26 26 27 28 28 29 28 27 26 27
19 19 20 21 21 21 21 21 20 19 19 20 20 20 19 18 18 18 18 18 18 19 22 21 20 22 23 22 21 23 26 27 26 25 25 26 28 28 28 28 27 26
19 20 21 21 21 21 21 21 20 20 20 19 19 19 18 18 18 17 17 17 17 18 19 18 17 20 21 20 21 21 23 25 25 24 24 25 26 27 28 27 27 26
20 21 21 22 22 22 21 21 21 21 20 20 21 20 19 17 16 16 16 16 16 17 18 16 16 18 19 20 21 21 24 27 26 24 24 24 25 25 26 27 27 27
20 21 21 21 22 22 22 22 21 22 21 21 23 25 23 20 17 16 15 15 15 15 15 15 16 18 18 19 21 22 24 27 25 23 23 24 25 25 24 25 26 27
21 21 21 21 22 22 22 22 22 22 22 20 21 25 27 27 24 20 17 17 16 16 15 14 14 17 18 19 21 23 24 24 23 23 23 24 25 25 23 22 22 23
21 21 22 22 22 23 22 22 22 21 20 20 19 21 25 29 30 28 24 21 20 18 17 16 14 15 17 17 19 21 23 23 23 24 24 24 23 22 21 22 21 22
21 21 22 22 23 23 23 23 23 22 21 20 19 20 22 24 27 32 32 29 26 23 21 19 17 16 17 18 19 20 22 23 23 24 26 25 23 21 21 23 23 23
21 21 22 23 23 23 24 24 25 24 23 22 20 20 21 19 21 27 32 33 32 29 26 25 22 19 18 20 22 21 21 22 23 24 25 25 24 23 23 22 22 23
21 21 22 22 23 23 24 24 24 25 25 24 22 22 21 20 20 21 24 29 34 34 31 30 27 25 21 18 20 22 20 20 22 24 24 24 23 23 23 23 21 22
21 21 22 22 22 23 23 23 23 24 24 24 23 23 22 21 21 19 19 24 30 33 34 33 31 29 26 21 19 19 19 19 20 22 24 24 23 23 23 22 22 22
21 21 21 21 22 23 23 23 23 23 23 23 23 23 23 22 22 21 20 21 24 27 31 34 34 33 30 27 22 19 17 17 17 19 21 22 22 22 22 21 19 21
22 22 21 21 22 22 23 23 23 23 24 23 23 23 23 23 22 22 23 23 22 23 26 31 34 34 33 30 26 22 18 15 16 17 19 19 18 19 20 19 14 15

ECMWFNIL_850_spd_072.txt.gz
Wind_Speed
11 11 10 9 11 12 14 15 16 16 14 14 15 16 16 17 18 19 20 21 23 24 24 24 24 25 26 26 26 25 25 28 29 30 30 32 33 34 35 35 35 35
14 15 15 12 10 10 12 13 15 16 16 16 16 16 17 17 18 20 21 23 24 24 24 25 25 25 25 26 26 24 24 26 28 29 30 32 34 33 34 34 34 35
13 15 17 17 15 13 13 13 13 13 15 17 17 17 18 18 19 20 21 23 25 25 23 23 24 26 25 26 26 25 25 26 28 29 30 32 34 32 33 34 34 34
13 13 15 17 18 17 16 15 12 12 14 16 18 18 18 18 19 20 20 21 23 24 23 22 23 24 24 25 25 25 25 26 27 28 28 30 32 31 32 34 34 33
15 15 15 16 18 19 18 16 15 15 16 18 20 21 21 20 19 18 19 20 21 22 23 22 22 22 23 24 25 26 26 27 27 27 27 30 33 32 32 34 34 34
15 14 15 17 19 21 20 18 17 17 19 20 21 22 23 23 21 19 19 19 20 21 22 23 23 23 23 24 26 28 28 29 28 27 28 31 33 33 32 33 34 36
15 14 14 18 20 21 21 21 20 18 17 18 19 21 22 23 24 24 24 23 21 21 22 23 23 24 24 25 26 28 29 29 29 28 29 30 31 32 32 32 34 36
17 17 17 19 20 20 22 22 22 21 19 19 19 19 19 19 21 23 25 25 24 22 22 23 23 24 25 25 26 28 30 30 29 30 30 29 30 31 33 33 33 34
18 18 19 20 21 21 22 23 22 22 22 22 22 21 19 18 18 19 20 21 22 22 23 25 24 24 24 24 25 26 29 30 30 31 31 29 30 31 33 34 34 33
19 19 20 21 21 22 24 25 25 23 23 24 24 24 24 22 21 20 19 19 19 19 21 24 25 25 24 24 24 23 26 29 30 30 31 30 29 30 32 33 33 32
20 20 20 21 21 22 23 25 26 25 24 24 25 26 27 26 26 23 20 19 19 18 19 21 21 23 23 22 21 21 23 28 29 27 27 29 27 27 28 27 27 28
20 19 20 21 21 22 23 24 26 26 23 23 24 26 27 27 27 25 21 19 18 17 18 20 20 21 22 21 21 21 22 25 26 24 24 27 26 24 25 24 24 27
21 21 21 22 22 23 23 24 25 26 24 22 23 25 26 27 27 25 21 19 18 16 14 17 20 22 23 22 21 21 21 22 23 22 22 24 25 24 24 23 24 26
21 21 22 23 23 23 23 24 25 26 25 24 24 25 25 26 27 25 22 19 17 16 15 15 17 21 23 23 22 22 22 22 22 20 21 24 25 24 24 24 24 23
20 20 21 22 22 22 23 24 25 26 26 25 25 26 26 28 28 26 24 21 18 17 17 17 17 18 20 20 21 22 22 22 22 21 23 26 27 25 25 25 24 22
20 21 21 22 23 23 23 23 24 24 24 25 26 27 26 27 30 29 27 26 24 21 19 19 18 18 19 19 19 21 23 23 23 23 23 24 24 24 25 25 23 23
21 22 23 23 24 24 24 24 25 25 24 23 24 27 27 27 30 32 32 31 30 27 23 21 21 21 21 20 20 20 22 24 24 23 23 23 22 23 25 25 22 22
21 22 23 24 24 25 25 26 26 26 25 24 24 26 27 28 31 34 35 34 33 32 29 26 25 24 23 22 21 21 22 23 24 24 23 24 24 25 27 25 22 21
21 22 22 23 24 25 25 25 27 28 28 28 27 26 25 26 28 32 35 35 35 35 34 32 30 28 26 24 22 21 22 22 23 24 24 25 25 26 26 23 21 22
21 22 23 23 24 25 25 25 27 28 28 29 30 29 28 27 25 28 31 32 33 35 35 36 35 34 31 28 25 22 21 21 22 23 24 24 24 24 25 23 22 21
22 22 23 24 25 26 26 26 28 29 29 29 29 30 31 30 27 28 29 29 31 34 35 37 38 37 36 33 30 25 21 19 21 22 23 23 24 24 24 24 24 21
23 23 23 24 26 26 26 27 29 30 30 29 28 29 31 30 29 30 30 28 30 33 35 36 37 38 39 38 34 30 25 19 18 19 21 22 23 23 24 23 23 21
24 24 24 25 25 26 27 27 28 29 30 29 28 29 30 30 29 30 30 30 31 33 35 37 37 38 39 40 39 35 30 24 19 17 17 19 20 21 21 22 22 21
24 24 25 25 25 25 27 28 27 26 28 28 27 28 29 29 29 29 29 31 32 33 34 36 37 38 39 40 41 39 36 31 24 18 15 15 16 17 18 18 19 21
24 25 26 26 26 26 27 30 30 27 26 26 26 26 26 28 29 29 30 32 33 33 33 34 35 37 39 39 40 41 40 37 31 23 18 14 13 13 13 13 14 19
22 24 25 26 27 26 27 30 33 31 27 26 26 25 25 26 27 28 30 33 34 33 34 34 33 35 37 38 39 40 40 40 37 32 26 20 16 13 11 9 11 16